UAL128 RJAA-KSFO

Flight info

Callsign UAL128
Flight time 9h 6m
Altitude 35000
Route GULBO Y808 NOLAX Y812 ADNAP OTR5 KALNA 42N160E/N0477F370 43N170E 42N180E 40N170W 40N160W/N0488F390 40N150W 39N140W 38N130W DCT ALLBE DCT PASIF PIRAT3
Aircraft B772/H-SDE2E3FGHIJ5LORVWXY/LB1D1

Departure

Time 2026-05-06 17:30
Airport Narita International Airport (RJAA)

Arrival

Time 2026-05-07 02:37
Airport San Francisco International Airport (KSFO)
Time Latitude Longitude Altitude Speed Heading
2026-05-06 17:05 35.76488 140.38176 148 ft 0 kts 124°
2026-05-06 17:21 35.76499 140.38157 148 ft 4 kts 124°
2026-05-06 17:21 35.76513 140.38130 148 ft 4 kts 120°
2026-05-06 17:21 35.76527 140.38105 148 ft 4 kts 143°
2026-05-06 17:21 35.76545 140.38090 148 ft 4 kts 170°
2026-05-06 17:22 35.76563 140.38092 148 ft 4 kts 218°
2026-05-06 17:22 35.76583 140.38112 148 ft 2 kts 210°
2026-05-06 17:22 35.76588 140.38115 148 ft 0 kts 209°
2026-05-06 17:25 35.76583 140.38112 148 ft 6 kts 209°
2026-05-06 17:25 35.76512 140.38064 148 ft 13 kts 208°
2026-05-06 17:25 35.76457 140.37979 148 ft 14 kts 264°
2026-05-06 17:26 35.76508 140.37886 148 ft 14 kts 320°
2026-05-06 17:26 35.76552 140.37786 148 ft 14 kts 283°
2026-05-06 17:26 35.76605 140.37695 148 ft 14 kts 322°
2026-05-06 17:26 35.76683 140.37628 148 ft 14 kts 328°
2026-05-06 17:27 35.76763 140.37567 148 ft 14 kts 328°
2026-05-06 17:27 35.76848 140.37513 148 ft 14 kts 333°
2026-05-06 17:27 35.76929 140.37455 148 ft 14 kts 330°
2026-05-06 17:27 35.77011 140.37396 148 ft 14 kts 330°
2026-05-06 17:28 35.77092 140.37338 147 ft 14 kts 330°
2026-05-06 17:28 35.77174 140.37279 147 ft 14 kts 328°
2026-05-06 17:28 35.77254 140.37218 147 ft 14 kts 328°
2026-05-06 17:28 35.77335 140.37158 147 ft 14 kts 330°
2026-05-06 17:29 35.77417 140.37100 147 ft 14 kts 330°
2026-05-06 17:29 35.77486 140.37024 148 ft 14 kts 292°
2026-05-06 17:29 35.77460 140.36917 148 ft 14 kts 238°
2026-05-06 17:29 35.77382 140.36884 147 ft 13 kts 166°
2026-05-06 17:30 35.77192 140.37017 146 ft 69 kts 150°
2026-05-06 17:30 35.76522 140.37498 149 ft 151 kts 149°
2026-05-06 17:30 35.75447 140.38291 423 ft 195 kts 148°
2026-05-06 17:30 35.74319 140.39142 1637 ft 186 kts 149°
2026-05-06 17:31 35.73163 140.39960 2376 ft 204 kts 149°
2026-05-06 17:31 35.71864 140.40873 2594 ft 226 kts 149°
2026-05-06 17:31 35.70445 140.41877 3044 ft 238 kts 150°
2026-05-06 17:31 35.68987 140.42914 3771 ft 243 kts 152°
2026-05-06 17:32 35.67511 140.43969 4341 ft 253 kts 153°
2026-05-06 17:32 35.65969 140.45077 4956 ft 259 kts 153°
2026-05-06 17:32 35.64393 140.46214 5631 ft 264 kts 153°
2026-05-06 17:32 35.62796 140.47368 6346 ft 268 kts 153°
2026-05-06 17:33 35.61175 140.48541 7031 ft 272 kts 153°
2026-05-06 17:33 35.59682 140.49936 7505 ft 283 kts 130°
2026-05-06 17:33 35.58905 140.52214 8067 ft 294 kts 100°
2026-05-06 17:33 35.58664 140.54733 8614 ft 299 kts 99°
2026-05-06 17:34 35.58436 140.56943 9173 ft 302 kts 99°
2026-05-06 17:34 35.58288 140.58316 9540 ft 303 kts 99°
2026-05-06 17:34 35.58004 140.60909 10151 ft 308 kts 99°
2026-05-06 17:34 35.57706 140.63589 10438 ft 326 kts 100°
2026-05-06 17:35 35.57382 140.66449 10601 ft 348 kts 100°
2026-05-06 17:35 35.57033 140.69491 10770 ft 370 kts 100°
2026-05-06 17:35 35.56662 140.72679 10995 ft 390 kts 100°
2026-05-06 17:36 35.55869 140.79468 12126 ft 410 kts 100°
2026-05-06 17:36 35.55459 140.82959 12863 ft 414 kts 100°
2026-05-06 17:36 35.55045 140.86479 13599 ft 418 kts 100°
2026-05-06 17:36 35.54624 140.90041 14230 ft 425 kts 100°
2026-05-06 17:37 35.54204 140.93607 14848 ft 430 kts 101°
2026-05-06 17:37 35.53769 140.97266 15485 ft 435 kts 101°
2026-05-06 17:37 35.53327 141.00964 16106 ft 439 kts 101°
2026-05-06 17:37 35.52880 141.04702 16673 ft 444 kts 101°
2026-05-06 17:38 35.52424 141.08494 17218 ft 450 kts 101°
2026-05-06 17:38 35.51968 141.12275 17786 ft 454 kts 101°
2026-05-06 17:38 35.51503 141.16130 18345 ft 459 kts 102°
2026-05-06 17:38 35.51029 141.20037 18853 ft 464 kts 102°
2026-05-06 17:39 35.50549 141.23983 19372 ft 468 kts 102°
2026-05-06 17:39 35.50064 141.27957 19911 ft 471 kts 102°
2026-05-06 17:39 35.49583 141.31897 20412 ft 475 kts 103°
2026-05-06 17:39 35.49092 141.35918 20885 ft 479 kts 103°
2026-05-06 17:40 35.48592 141.39989 21365 ft 482 kts 103°
2026-05-06 17:40 35.48087 141.44089 21825 ft 485 kts 103°
2026-05-06 17:40 35.47579 141.48196 22259 ft 489 kts 103°
2026-05-06 17:40 35.47073 141.52286 22707 ft 492 kts 104°
2026-05-06 17:41 35.46554 141.56465 23149 ft 496 kts 104°
2026-05-06 17:41 35.46031 141.60669 23591 ft 498 kts 104°
2026-05-06 17:41 35.45504 141.64900 24031 ft 501 kts 104°
2026-05-06 17:41 35.44981 141.69082 24443 ft 504 kts 104°
2026-05-06 17:42 35.44449 141.73360 24810 ft 508 kts 103°
2026-05-06 17:42 35.44097 141.77710 25144 ft 517 kts 97°
2026-05-06 17:42 35.44037 141.82150 25464 ft 522 kts 95°
2026-05-06 17:42 35.44037 141.86622 25788 ft 526 kts 94°
2026-05-06 17:43 35.44045 141.91131 26102 ft 529 kts 94°
2026-05-06 17:43 35.44045 141.95597 26408 ft 532 kts 95°
2026-05-06 17:43 35.44030 142.00162 26713 ft 535 kts 95°
2026-05-06 17:43 35.44002 142.04744 26983 ft 538 kts 95°
2026-05-06 17:44 35.43965 142.09364 27263 ft 541 kts 95°
2026-05-06 17:44 35.43923 142.13994 27544 ft 544 kts 95°
2026-05-06 17:44 35.43879 142.18585 27807 ft 546 kts 95°
2026-05-06 17:44 35.43833 142.23253 28073 ft 548 kts 95°
2026-05-06 17:45 35.43787 142.27944 28315 ft 551 kts 95°
2026-05-06 17:45 35.43739 142.32669 28542 ft 553 kts 95°
2026-05-06 17:45 35.43690 142.37422 28754 ft 556 kts 95°
2026-05-06 17:45 35.43639 142.42117 28970 ft 558 kts 95°
2026-05-06 17:46 35.43586 142.46901 29165 ft 560 kts 94°
2026-05-06 17:46 35.43531 142.51705 29357 ft 562 kts 94°
2026-05-06 17:46 35.43474 142.56465 29549 ft 564 kts 94°
2026-05-06 17:46 35.43414 142.61284 29757 ft 565 kts 94°
2026-05-06 17:47 35.43352 142.66122 30001 ft 565 kts 94°
2026-05-06 17:47 35.43290 142.70900 30274 ft 564 kts 94°
2026-05-06 17:47 35.43226 142.75697 30560 ft 563 kts 94°
2026-05-06 17:47 35.43159 142.80522 30792 ft 563 kts 94°
2026-05-06 17:48 35.43090 142.85327 31062 ft 563 kts 94°
2026-05-06 17:48 35.43019 142.90140 31288 ft 562 kts 94°
2026-05-06 17:48 35.42947 142.94931 31532 ft 562 kts 94°
2026-05-06 17:48 35.42872 142.99714 31806 ft 561 kts 94°
2026-05-06 17:49 35.42798 143.04439 32088 ft 559 kts 94°
2026-05-06 17:49 35.42720 143.09219 32332 ft 558 kts 94°
2026-05-06 17:49 35.42641 143.13987 32550 ft 558 kts 94°
2026-05-06 17:49 35.42561 143.18697 32744 ft 559 kts 94°
2026-05-06 17:50 35.42478 143.23466 32963 ft 558 kts 94°
2026-05-06 17:50 35.42633 143.28232 33092 ft 561 kts 82°
2026-05-06 17:50 35.43654 143.32861 33226 ft 563 kts 67°
2026-05-06 17:50 35.45423 143.37137 33460 ft 560 kts 54°
2026-05-06 17:51 35.47816 143.40790 33696 ft 549 kts 41°
2026-05-06 17:51 35.50534 143.44112 33797 ft 551 kts 40°
2026-05-06 17:51 35.53261 143.47426 33908 ft 553 kts 41°
2026-05-06 17:51 35.55987 143.50776 34101 ft 553 kts 41°
2026-05-06 17:52 35.58660 143.54116 34352 ft 552 kts 42°
2026-05-06 17:52 35.61334 143.57504 34606 ft 551 kts 42°
2026-05-06 17:52 35.63991 143.60898 34806 ft 551 kts 42°
2026-05-06 17:52 35.66650 143.64311 34974 ft 552 kts 42°
2026-05-06 17:53 35.71948 143.71114 35061 ft 553 kts 42°
2026-05-06 17:53 35.77277 143.77963 35058 ft 551 kts 42°
2026-05-06 17:54 35.82554 143.84751 35063 ft 550 kts 42°
2026-05-06 17:54 35.87854 143.91578 35067 ft 549 kts 43°
2026-05-06 17:55 35.93137 143.98404 35068 ft 549 kts 43°
2026-05-06 17:55 35.98386 144.05199 35064 ft 549 kts 43°
2026-05-06 17:56 36.03667 144.12050 35072 ft 550 kts 43°
2026-05-06 17:56 36.08913 144.18879 35064 ft 550 kts 43°
2026-05-06 17:57 36.14193 144.25770 35061 ft 551 kts 43°
2026-05-06 17:57 36.19471 144.32673 35068 ft 552 kts 43°
2026-05-06 17:58 36.24720 144.39552 35062 ft 553 kts 43°
2026-05-06 17:58 36.30015 144.46504 35057 ft 554 kts 42°
2026-05-06 17:59 36.35276 144.53428 35055 ft 554 kts 42°
2026-05-06 17:59 36.40578 144.60423 35058 ft 555 kts 42°
2026-05-06 18:00 36.45860 144.67405 35055 ft 556 kts 42°
2026-05-06 18:00 36.51169 144.74435 35058 ft 557 kts 42°
2026-05-06 18:01 36.56456 144.81452 35057 ft 558 kts 42°
2026-05-06 18:01 36.61773 144.88526 35055 ft 559 kts 42°
2026-05-06 18:02 36.67074 144.95591 35055 ft 560 kts 42°
2026-05-06 18:02 36.72411 145.02722 35057 ft 561 kts 42°
2026-05-06 18:03 36.77711 145.09818 35050 ft 562 kts 42°
2026-05-06 18:03 36.83053 145.16987 35045 ft 563 kts 42°
2026-05-06 18:04 36.88358 145.24123 35048 ft 563 kts 42°
2026-05-06 18:04 36.93710 145.31337 35046 ft 564 kts 42°
2026-05-06 18:05 36.99024 145.38514 35045 ft 564 kts 42°
2026-05-06 18:05 37.04365 145.45744 35043 ft 565 kts 42°
2026-05-06 18:06 37.09678 145.52954 35046 ft 566 kts 41°
2026-05-06 18:06 37.15037 145.60242 35046 ft 567 kts 41°
2026-05-06 18:07 37.20216 145.67669 35042 ft 572 kts 48°
2026-05-06 18:07 37.24625 145.76086 35052 ft 577 kts 55°
2026-05-06 18:08 37.28798 145.84668 35045 ft 579 kts 55°
2026-05-06 18:08 37.33033 145.93324 35047 ft 580 kts 54°
2026-05-06 18:09 37.37289 146.01922 35049 ft 582 kts 54°
2026-05-06 18:09 37.41594 146.10596 35046 ft 584 kts 54°
2026-05-06 18:10 37.45876 146.19249 35047 ft 585 kts 54°
2026-05-06 18:10 37.50156 146.27936 35046 ft 586 kts 54°
2026-05-06 18:11 37.53737 146.35223 35049 ft 587 kts 54°
2026-05-06 18:11 37.58735 146.45427 35046 ft 587 kts 54°
2026-05-06 18:12 37.62307 146.52740 35048 ft 587 kts 54°
2026-05-06 18:12 37.66581 146.61510 35044 ft 579 kts 54°
2026-05-06 18:13 37.70739 146.70072 35040 ft 571 kts 54°
2026-05-06 18:13 37.74908 146.78657 35048 ft 572 kts 54°
2026-05-06 18:14 37.79051 146.87215 35015 ft 574 kts 54°
2026-05-06 18:14 37.83203 146.95818 34982 ft 575 kts 54°
2026-05-06 18:15 37.87369 147.04481 34982 ft 575 kts 54°
2026-05-06 18:15 37.91503 147.13097 34983 ft 575 kts 54°
2026-05-06 18:16 37.95660 147.21782 34979 ft 575 kts 54°
2026-05-06 18:16 37.99812 147.30478 34974 ft 575 kts 54°
2026-05-06 18:17 38.03931 147.39128 34962 ft 576 kts 55°
2026-05-06 18:17 38.08083 147.47875 34976 ft 577 kts 55°
2026-05-06 18:18 38.12213 147.56593 34983 ft 579 kts 55°
2026-05-06 18:18 38.16346 147.65345 34975 ft 580 kts 55°
2026-05-06 18:19 38.20506 147.74182 34972 ft 581 kts 55°
2026-05-06 18:19 38.24633 147.82967 34969 ft 581 kts 55°
2026-05-06 18:20 38.28785 147.91831 34962 ft 581 kts 55°
2026-05-06 18:20 38.32893 148.00625 34960 ft 581 kts 55°
2026-05-06 18:21 38.37031 148.09511 34960 ft 581 kts 55°
2026-05-06 18:21 38.41133 148.18339 34955 ft 581 kts 55°
2026-05-06 18:22 38.45261 148.27251 34955 ft 581 kts 55°
2026-05-06 18:22 38.49347 148.36094 34952 ft 581 kts 55°
2026-05-06 18:23 38.53453 148.45006 34954 ft 581 kts 55°
2026-05-06 18:23 38.57534 148.53889 34951 ft 581 kts 55°
2026-05-06 18:24 38.61609 148.62784 34954 ft 582 kts 56°
2026-05-06 18:24 38.65714 148.71766 34953 ft 582 kts 56°
2026-05-06 18:25 38.69775 148.80680 34958 ft 583 kts 56°
2026-05-06 18:25 38.73867 148.89688 34956 ft 584 kts 56°
2026-05-06 18:26 38.77931 148.98658 34947 ft 585 kts 56°
2026-05-06 18:26 38.82020 149.07712 34940 ft 585 kts 56°
2026-05-06 18:27 38.86071 149.16705 34948 ft 586 kts 56°
2026-05-06 18:27 38.90153 149.25795 34945 ft 586 kts 56°
2026-05-06 18:28 38.94200 149.34830 34947 ft 587 kts 56°
2026-05-06 18:28 38.98280 149.43963 34943 ft 587 kts 56°
2026-05-06 18:29 39.02347 149.53098 34943 ft 588 kts 56°
2026-05-06 18:29 39.06388 149.62199 34940 ft 588 kts 56°
2026-05-06 18:30 39.10457 149.71394 34948 ft 589 kts 56°
2026-05-06 18:30 39.14493 149.80541 34934 ft 590 kts 57°
2026-05-06 18:31 39.18065 149.90062 34944 ft 593 kts 64°
2026-05-06 18:31 39.21293 149.99871 34932 ft 594 kts 65°
2026-05-06 18:32 39.24500 150.09708 34936 ft 594 kts 64°
2026-05-06 18:32 39.27723 150.19459 34933 ft 593 kts 64°
2026-05-06 18:33 39.30989 150.29278 34934 ft 593 kts 64°
2026-05-06 18:33 39.34228 150.39038 34936 ft 593 kts 64°
2026-05-06 18:34 39.37474 150.48872 34936 ft 593 kts 64°
2026-05-06 18:34 39.40681 150.58639 34934 ft 593 kts 64°
2026-05-06 18:35 39.43884 150.68427 34933 ft 593 kts 64°
2026-05-06 18:35 39.47106 150.78299 34931 ft 593 kts 64°
2026-05-06 18:36 39.50297 150.88106 34927 ft 593 kts 64°
2026-05-06 18:36 39.53498 150.97985 34926 ft 592 kts 64°
2026-05-06 18:37 39.56664 151.07797 34926 ft 592 kts 64°
2026-05-06 18:37 39.59822 151.17618 34924 ft 591 kts 64°
2026-05-06 18:38 39.62989 151.27495 34925 ft 591 kts 64°
2026-05-06 18:38 39.66136 151.37347 34928 ft 590 kts 63°
2026-05-06 18:39 39.69258 151.47159 34923 ft 590 kts 63°
2026-05-06 18:40 39.73942 151.61935 34929 ft 590 kts 63°
2026-05-06 18:40 39.77063 151.71821 34917 ft 590 kts 63°
2026-05-06 18:41 39.80177 151.81728 34918 ft 590 kts 63°
2026-05-06 18:41 39.83260 151.91573 34914 ft 590 kts 63°
2026-05-06 18:42 39.86359 152.01504 34919 ft 591 kts 63°
2026-05-06 18:42 39.89431 152.11382 34917 ft 591 kts 63°
2026-05-06 18:43 39.92522 152.21359 34917 ft 592 kts 64°
2026-05-06 18:43 39.95580 152.31265 34917 ft 592 kts 64°
2026-05-06 18:44 39.98653 152.41255 34918 ft 592 kts 64°
2026-05-06 18:44 40.01695 152.51184 34919 ft 592 kts 64°
2026-05-06 18:45 40.04750 152.61192 34917 ft 591 kts 64°
2026-05-06 18:45 40.07767 152.71111 34904 ft 590 kts 64°
2026-05-06 18:46 40.10770 152.81020 34904 ft 587 kts 64°
2026-05-06 18:46 40.13774 152.90972 34907 ft 586 kts 64°
2026-05-06 18:47 40.16740 153.00837 34905 ft 584 kts 64°
2026-05-06 18:47 40.19708 153.10735 34907 ft 583 kts 64°
2026-05-06 18:48 40.22648 153.20577 34907 ft 583 kts 64°
2026-05-06 18:48 40.25598 153.30492 34906 ft 584 kts 64°
2026-05-06 18:49 40.28530 153.40385 34909 ft 585 kts 64°
2026-05-06 18:49 40.31475 153.50356 34901 ft 586 kts 64°
2026-05-06 18:50 40.34405 153.60316 34896 ft 588 kts 64°
2026-05-06 18:50 40.37350 153.70369 34902 ft 590 kts 64°
2026-05-06 18:51 40.40274 153.80392 34899 ft 592 kts 64°
2026-05-06 18:51 40.43221 153.90521 34896 ft 593 kts 64°
2026-05-06 18:52 40.46162 154.00668 34901 ft 595 kts 65°
2026-05-06 18:52 40.49083 154.10791 34898 ft 595 kts 65°
2026-05-06 18:53 40.52019 154.21009 34899 ft 595 kts 65°
2026-05-06 18:53 40.54920 154.31152 34895 ft 593 kts 65°
2026-05-06 18:54 40.57799 154.41252 34887 ft 590 kts 65°
2026-05-06 18:54 40.60668 154.51351 34886 ft 586 kts 65°
2026-05-06 18:55 40.63495 154.61347 34883 ft 582 kts 65°
2026-05-06 18:55 40.66315 154.71347 34886 ft 579 kts 65°
2026-05-06 18:56 40.69091 154.81240 34889 ft 577 kts 65°
2026-05-06 18:56 40.71869 154.91165 34891 ft 575 kts 65°
2026-05-06 18:57 40.74629 155.01073 34889 ft 574 kts 65°
2026-05-06 18:57 40.77363 155.10933 34882 ft 574 kts 65°
2026-05-06 18:58 40.80106 155.20850 34879 ft 574 kts 65°
2026-05-06 18:58 40.82817 155.30698 34879 ft 573 kts 66°
2026-05-06 18:59 40.85538 155.40626 34887 ft 573 kts 65°
2026-05-06 18:59 40.88227 155.50467 34882 ft 573 kts 66°
2026-05-06 19:00 40.90927 155.60388 34877 ft 572 kts 66°
2026-05-06 19:00 40.93604 155.70262 34880 ft 571 kts 66°
2026-05-06 19:01 40.96281 155.80179 34876 ft 571 kts 66°
2026-05-06 19:01 40.98931 155.90036 34870 ft 570 kts 66°
2026-05-06 19:02 41.01135 155.98266 34870 ft 569 kts 66°
2026-05-06 19:02 41.03775 156.08156 34873 ft 567 kts 66°
2026-05-06 19:03 41.06381 156.17956 34868 ft 565 kts 66°
2026-05-06 19:03 41.08972 156.27744 34868 ft 563 kts 67°
2026-05-06 19:04 41.11560 156.37558 34870 ft 562 kts 67°
2026-05-06 19:04 41.14140 156.47379 34872 ft 561 kts 67°
2026-05-06 19:05 41.16687 156.57112 34862 ft 560 kts 67°
2026-05-06 19:05 41.19240 156.66910 34862 ft 560 kts 67°
2026-05-06 19:06 41.21768 156.76652 34860 ft 560 kts 67°
2026-05-06 19:06 41.24296 156.86435 34862 ft 559 kts 67°
2026-05-06 19:07 41.26801 156.96161 34860 ft 559 kts 67°
2026-05-06 19:07 41.29322 157.05990 34863 ft 559 kts 68°
2026-05-06 19:08 41.31808 157.15725 34860 ft 558 kts 68°
2026-05-06 19:08 41.34303 157.25540 34859 ft 558 kts 68°
2026-05-06 19:09 41.36771 157.35282 34851 ft 558 kts 68°
2026-05-06 19:09 41.39244 157.45091 34852 ft 557 kts 68°
2026-05-06 19:10 41.41692 157.54836 34850 ft 556 kts 68°
2026-05-06 19:10 41.44140 157.64622 34852 ft 554 kts 68°
2026-05-06 19:11 41.46560 157.74326 34850 ft 553 kts 69°
2026-05-06 19:11 41.48980 157.84091 34852 ft 552 kts 69°
2026-05-06 19:12 41.51364 157.93739 34850 ft 550 kts 69°
2026-05-06 19:12 41.53762 158.03481 34840 ft 549 kts 69°
2026-05-06 19:13 41.56128 158.13133 34842 ft 549 kts 69°
2026-05-06 19:13 41.58482 158.22783 34839 ft 548 kts 69°
2026-05-06 19:14 41.60846 158.32512 34831 ft 548 kts 69°
2026-05-06 19:14 41.63182 158.42165 34835 ft 548 kts 69°
2026-05-06 19:15 41.65516 158.51844 34811 ft 548 kts 69°
2026-05-06 19:15 41.67858 158.61603 34763 ft 550 kts 69°
2026-05-06 19:16 41.70179 158.71316 34757 ft 550 kts 69°
2026-05-06 19:16 41.72505 158.81093 34746 ft 550 kts 69°
2026-05-06 19:17 41.74809 158.90823 34748 ft 551 kts 69°
2026-05-06 19:17 41.77124 159.00638 34750 ft 551 kts 69°
2026-05-06 19:18 41.79413 159.10378 34750 ft 551 kts 69°
2026-05-06 19:18 41.81696 159.20139 34748 ft 550 kts 69°
2026-05-06 19:19 41.83983 159.29963 34750 ft 549 kts 70°
2026-05-06 19:19 41.86241 159.39705 34749 ft 548 kts 70°
2026-05-06 19:20 41.88499 159.49489 34749 ft 546 kts 70°
2026-05-06 19:20 41.90730 159.59191 34735 ft 545 kts 70°
2026-05-06 19:21 41.92957 159.68932 34744 ft 542 kts 70°
2026-05-06 19:21 41.95148 159.78556 34743 ft 540 kts 70°
2026-05-06 19:22 41.97331 159.88173 34740 ft 538 kts 70°
2026-05-06 19:22 41.99506 159.97797 34738 ft 537 kts 71°
2026-05-06 19:23 42.01212 160.07549 34744 ft 538 kts 77°
2026-05-06 19:23 42.02597 160.17480 34744 ft 539 kts 78°
2026-05-06 19:24 42.03959 160.27358 34741 ft 539 kts 77°
2026-05-06 19:24 42.05358 160.37291 34735 ft 539 kts 77°
2026-05-06 19:25 42.06759 160.47174 34731 ft 540 kts 77°
2026-05-06 19:25 42.08165 160.57130 34731 ft 540 kts 77°
2026-05-06 19:26 42.09552 160.67026 34722 ft 540 kts 77°
2026-05-06 19:26 42.10938 160.76999 34732 ft 541 kts 77°
2026-05-06 19:27 42.12313 160.86970 34732 ft 540 kts 77°
2026-05-06 19:27 42.13670 160.96874 34728 ft 540 kts 77°
2026-05-06 19:28 42.15029 161.06853 34734 ft 539 kts 77°
2026-05-06 19:28 42.16368 161.16755 34736 ft 539 kts 77°
2026-05-06 19:29 42.17705 161.26708 34728 ft 538 kts 77°
2026-05-06 19:29 42.19031 161.36656 34732 ft 538 kts 78°
2026-05-06 19:30 42.20340 161.46533 34728 ft 537 kts 78°
2026-05-06 19:30 42.21646 161.56472 34719 ft 537 kts 78°
2026-05-06 19:31 42.22940 161.66372 34726 ft 537 kts 78°
2026-05-06 19:31 42.24867 161.81253 34719 ft 538 kts 78°
2026-05-06 19:32 42.26148 161.91232 34725 ft 538 kts 78°
2026-05-06 19:32 42.27412 162.01147 34716 ft 538 kts 78°
2026-05-06 19:33 42.28676 162.11134 34723 ft 538 kts 78°
2026-05-06 19:33 42.29924 162.21069 34720 ft 538 kts 78°
2026-05-06 19:34 42.31163 162.31006 34724 ft 538 kts 78°
2026-05-06 19:34 42.32402 162.41010 34721 ft 538 kts 78°
2026-05-06 19:35 42.33624 162.50958 34721 ft 538 kts 78°
2026-05-06 19:35 42.34845 162.60966 34715 ft 538 kts 78°
2026-05-06 19:36 42.36047 162.70905 34722 ft 538 kts 78°
2026-05-06 19:36 42.37249 162.80918 34722 ft 537 kts 78°
2026-05-06 19:37 42.38433 162.90844 34722 ft 537 kts 78°
2026-05-06 19:37 42.39415 162.99143 34721 ft 536 kts 79°
2026-05-06 19:38 42.40780 163.10762 34708 ft 536 kts 79°
2026-05-06 19:38 42.41942 163.20744 34711 ft 535 kts 79°
2026-05-06 19:39 42.43088 163.30661 34713 ft 535 kts 79°
2026-05-06 19:39 42.44232 163.40625 34714 ft 534 kts 79°
2026-05-06 19:40 42.45358 163.50527 34712 ft 533 kts 79°
2026-05-06 19:40 42.46483 163.60495 34712 ft 533 kts 79°
2026-05-06 19:41 42.47591 163.70385 34716 ft 533 kts 79°
2026-05-06 19:41 42.48689 163.80284 34710 ft 533 kts 79°
2026-05-06 19:42 42.49784 163.90230 34721 ft 533 kts 79°
2026-05-06 19:42 42.50873 164.00195 34721 ft 532 kts 79°
2026-05-06 19:43 42.51947 164.10097 34723 ft 533 kts 79°
2026-05-06 19:43 42.53012 164.20004 34715 ft 533 kts 80°
2026-05-06 19:44 42.54070 164.29944 34723 ft 532 kts 80°
2026-05-06 19:44 42.55123 164.39911 34723 ft 533 kts 80°
2026-05-06 19:45 42.56161 164.49823 34723 ft 533 kts 80°
2026-05-06 19:45 42.57192 164.59750 34722 ft 533 kts 80°
2026-05-06 19:46 42.58219 164.69727 34728 ft 533 kts 80°
2026-05-06 19:46 42.59240 164.79721 34720 ft 533 kts 80°
2026-05-06 19:47 42.60245 164.89656 34722 ft 533 kts 80°
2026-05-06 19:47 42.61240 164.99578 34724 ft 533 kts 80°
2026-05-06 19:48 42.62233 165.09570 34721 ft 533 kts 80°
2026-05-06 19:48 42.63215 165.19553 34719 ft 533 kts 80°
2026-05-06 19:49 42.64187 165.29509 34717 ft 533 kts 80°
2026-05-06 19:49 42.65155 165.39530 34730 ft 532 kts 80°
2026-05-06 19:50 42.66105 165.49450 34725 ft 532 kts 80°
2026-05-06 19:50 42.66895 165.57765 34719 ft 532 kts 80°
2026-05-06 19:51 42.67987 165.69374 34713 ft 531 kts 80°
2026-05-06 19:51 42.68761 165.77687 34709 ft 531 kts 81°
2026-05-06 19:52 42.69676 165.87605 34713 ft 531 kts 80°
2026-05-06 19:52 42.70591 165.97599 34714 ft 530 kts 81°
2026-05-06 19:53 42.71489 166.07524 34709 ft 531 kts 81°
2026-05-06 19:53 42.72381 166.17462 34713 ft 531 kts 81°
2026-05-06 19:54 42.73269 166.27467 34715 ft 531 kts 81°
2026-05-06 19:54 42.74143 166.37406 34711 ft 532 kts 81°
2026-05-06 19:55 42.75015 166.47431 34713 ft 532 kts 81°
2026-05-06 19:55 42.75872 166.57398 34711 ft 532 kts 81°
2026-05-06 19:56 42.76726 166.67423 34710 ft 532 kts 81°
2026-05-06 19:56 42.77569 166.77419 34679 ft 534 kts 81°
2026-05-06 19:57 42.78406 166.87434 34673 ft 534 kts 81°
2026-05-06 19:57 42.79236 166.97503 34678 ft 534 kts 81°
2026-05-06 19:58 42.80060 167.07601 34676 ft 535 kts 81°
2026-05-06 19:58 42.80869 167.17618 34674 ft 535 kts 81°
2026-05-06 19:59 42.81677 167.27733 34676 ft 535 kts 81°
2026-05-06 19:59 42.82469 167.37781 34673 ft 536 kts 81°
2026-05-06 20:00 42.83253 167.47833 34671 ft 536 kts 82°
2026-05-06 20:00 42.84037 167.57979 34674 ft 537 kts 82°
2026-05-06 20:01 42.84805 167.68065 34682 ft 536 kts 82°
2026-05-06 20:01 42.85562 167.78133 34686 ft 536 kts 82°
2026-05-06 20:02 42.86317 167.88265 34673 ft 537 kts 82°
2026-05-06 20:02 42.87060 167.98363 34675 ft 536 kts 82°
2026-05-06 20:03 42.87797 168.08517 34669 ft 537 kts 82°
2026-05-06 20:03 42.88527 168.18667 34673 ft 537 kts 82°
2026-05-06 20:04 42.89242 168.28771 34675 ft 537 kts 82°
2026-05-06 20:04 42.89949 168.38884 34673 ft 538 kts 82°
2026-05-06 20:05 42.90652 168.49066 34675 ft 538 kts 82°
2026-05-06 20:05 42.91344 168.59209 34676 ft 539 kts 82°
2026-05-06 20:06 42.92029 168.69400 34670 ft 539 kts 82°
2026-05-06 20:06 42.92702 168.79553 34677 ft 540 kts 82°
2026-05-06 20:07 42.93374 168.89795 34674 ft 540 kts 82°
2026-05-06 20:07 42.94035 169.00030 34676 ft 541 kts 82°
2026-05-06 20:08 42.94684 169.10231 34673 ft 541 kts 83°
2026-05-06 20:08 42.95327 169.20497 34675 ft 541 kts 83°
2026-05-06 20:09 42.95958 169.30703 34672 ft 542 kts 83°
2026-05-06 20:09 42.96584 169.40987 34675 ft 542 kts 83°
2026-05-06 20:10 42.97197 169.51205 34674 ft 542 kts 83°
2026-05-06 20:10 42.97808 169.61517 34677 ft 543 kts 83°
2026-05-06 20:11 42.98404 169.71762 34679 ft 543 kts 83°
2026-05-06 20:11 42.98993 169.82041 34672 ft 544 kts 83°
2026-05-06 20:12 42.99576 169.92352 34679 ft 543 kts 83°
2026-05-06 20:12 42.99936 170.02610 34682 ft 545 kts 90°
2026-05-06 20:13 42.99387 170.12957 34690 ft 545 kts 94°
2026-05-06 20:13 42.98719 170.23312 34685 ft 546 kts 94°
2026-05-06 20:14 42.98081 170.33618 34684 ft 546 kts 93°
2026-05-06 20:14 42.97467 170.43988 34687 ft 547 kts 93°
2026-05-06 20:15 42.96858 170.54302 34683 ft 547 kts 93°
2026-05-06 20:15 42.96234 170.64703 34684 ft 547 kts 93°
2026-05-06 20:16 42.95600 170.75025 34680 ft 548 kts 93°
2026-05-06 20:16 42.94957 170.85339 34685 ft 548 kts 93°
2026-05-06 20:17 42.94301 170.95720 34686 ft 548 kts 94°
2026-05-06 20:17 42.93635 171.06093 34683 ft 548 kts 93°
2026-05-06 20:18 42.92962 171.16426 34682 ft 548 kts 94°
2026-05-06 20:18 42.92280 171.26762 34685 ft 549 kts 94°
2026-05-06 20:19 42.91585 171.37152 34685 ft 549 kts 94°
2026-05-06 20:19 42.90882 171.47500 34682 ft 549 kts 94°
2026-05-06 20:20 42.90172 171.57837 34686 ft 549 kts 94°
2026-05-06 20:20 42.89447 171.68246 34683 ft 549 kts 94°
2026-05-06 20:21 42.88719 171.78561 34683 ft 549 kts 94°
2026-05-06 20:21 42.87976 171.88961 34685 ft 549 kts 94°
2026-05-06 20:22 42.87229 171.99275 34683 ft 549 kts 94°
2026-05-06 20:22 42.86466 172.09673 34684 ft 549 kts 94°
2026-05-06 20:23 42.85700 172.19986 34684 ft 549 kts 94°
2026-05-06 20:23 42.84919 172.30367 34684 ft 549 kts 94°
2026-05-06 20:24 42.84134 172.40682 34687 ft 550 kts 94°
2026-05-06 20:24 42.83335 172.51063 34683 ft 550 kts 94°
2026-05-06 20:25 42.82531 172.61386 34684 ft 550 kts 94°
2026-05-06 20:25 42.81710 172.71788 34691 ft 550 kts 95°
2026-05-06 20:26 42.80881 172.82156 34694 ft 550 kts 95°
2026-05-06 20:26 42.80048 172.92487 34694 ft 550 kts 95°
2026-05-06 20:27 42.79207 173.02799 34694 ft 550 kts 95°
2026-05-06 20:27 42.78348 173.13207 34976 ft 552 kts 95°
2026-05-06 20:28 42.77914 173.18415 35242 ft 551 kts 95°
2026-05-06 20:28 42.77481 173.23597 35531 ft 549 kts 95°
2026-05-06 20:28 42.77051 173.28702 35805 ft 548 kts 95°
2026-05-06 20:28 42.76614 173.33862 36033 ft 547 kts 95°
2026-05-06 20:29 42.76173 173.39035 36200 ft 548 kts 96°
2026-05-06 20:29 42.75732 173.44189 36343 ft 549 kts 96°
2026-05-06 20:29 42.75293 173.49291 36496 ft 549 kts 96°
2026-05-06 20:29 42.74845 173.54469 36609 ft 550 kts 96°
2026-05-06 20:30 42.73501 173.69842 36676 ft 537 kts 96°
2026-05-06 20:31 42.72613 173.79888 36699 ft 537 kts 96°
2026-05-06 20:31 42.71709 173.89999 36700 ft 538 kts 96°
2026-05-06 20:32 42.70800 174.00055 36695 ft 539 kts 96°
2026-05-06 20:32 42.69875 174.10184 36694 ft 539 kts 96°
2026-05-06 20:33 42.68944 174.20289 36707 ft 540 kts 96°
2026-05-06 20:33 42.68004 174.30400 36785 ft 539 kts 96°
2026-05-06 20:34 42.67051 174.40540 36787 ft 540 kts 97°
2026-05-06 20:34 42.66096 174.50618 36787 ft 540 kts 97°
2026-05-06 20:35 42.65121 174.60789 36785 ft 541 kts 97°
2026-05-06 20:35 42.64144 174.70896 36789 ft 542 kts 97°
2026-05-06 20:36 42.63158 174.80997 36787 ft 542 kts 97°
2026-05-06 20:36 42.62153 174.91191 36787 ft 543 kts 97°
2026-05-06 20:37 42.61148 175.01309 36786 ft 543 kts 97°
2026-05-06 20:37 42.60125 175.11503 36786 ft 543 kts 97°
2026-05-06 20:38 42.59102 175.21604 36785 ft 543 kts 97°
2026-05-06 20:38 42.58064 175.31768 36788 ft 543 kts 97°
2026-05-06 20:39 42.57015 175.41934 36786 ft 543 kts 97°
2026-05-06 20:39 42.55964 175.52036 36787 ft 543 kts 98°
2026-05-06 20:40 42.54897 175.62203 36783 ft 543 kts 98°
2026-05-06 20:40 42.53830 175.72284 36789 ft 543 kts 98°
2026-05-06 20:41 42.52929 175.80730 36789 ft 542 kts 98°
2026-05-06 20:41 42.51839 175.90867 36786 ft 542 kts 98°
2026-05-06 20:42 42.50746 176.00946 36788 ft 542 kts 98°
2026-05-06 20:42 42.49645 176.11012 36785 ft 542 kts 98°
2026-05-06 20:43 42.48528 176.21153 36787 ft 542 kts 98°
2026-05-06 20:43 42.47409 176.31207 36786 ft 542 kts 98°
2026-05-06 20:44 42.46274 176.41332 36786 ft 542 kts 98°
2026-05-06 20:44 42.45139 176.51370 36787 ft 542 kts 98°
2026-05-06 20:45 42.43986 176.61491 36786 ft 542 kts 98°
2026-05-06 20:45 42.42831 176.71551 36787 ft 543 kts 98°
2026-05-06 20:46 42.41658 176.81682 36786 ft 543 kts 98°
2026-05-06 20:46 42.40483 176.91738 36787 ft 543 kts 99°
2026-05-06 20:47 42.39291 177.01870 36787 ft 544 kts 99°
2026-05-06 20:47 42.38098 177.11940 36787 ft 544 kts 99°
2026-05-06 20:48 42.36888 177.22066 36786 ft 544 kts 99°
2026-05-06 20:48 42.35676 177.32136 36788 ft 544 kts 99°
2026-05-06 20:49 42.34448 177.42266 36787 ft 545 kts 99°
2026-05-06 20:49 42.33218 177.52325 36788 ft 545 kts 99°
2026-05-06 20:50 42.31970 177.62458 36785 ft 545 kts 99°
2026-05-06 20:50 42.30719 177.72535 36743 ft 545 kts 99°
2026-05-06 20:51 42.29453 177.82660 36740 ft 545 kts 99°
2026-05-06 20:51 42.28189 177.92698 36739 ft 544 kts 99°
2026-05-06 20:52 42.26917 178.02722 36739 ft 543 kts 100°
2026-05-06 20:52 42.25627 178.12803 36742 ft 543 kts 100°
2026-05-06 20:53 42.24340 178.22814 36737 ft 543 kts 100°
2026-05-06 20:53 42.23036 178.32875 36739 ft 543 kts 100°
2026-05-06 20:54 42.21733 178.42853 36742 ft 542 kts 100°
2026-05-06 20:54 42.20411 178.52906 36739 ft 543 kts 100°
2026-05-06 20:55 42.19090 178.62881 36741 ft 543 kts 100°
2026-05-06 20:55 42.17757 178.72878 36737 ft 543 kts 101°
2026-05-06 20:56 42.16405 178.82944 36742 ft 544 kts 101°
2026-05-06 20:56 42.15046 178.92999 36739 ft 545 kts 101°
2026-05-06 20:57 42.13684 179.03000 36744 ft 545 kts 101°
2026-05-06 20:57 42.12300 179.13096 36738 ft 546 kts 101°
2026-05-06 20:58 42.10918 179.23112 36742 ft 547 kts 101°
2026-05-06 20:58 42.09515 179.33215 36741 ft 547 kts 101°
2026-05-06 20:59 42.08104 179.43302 36750 ft 547 kts 102°
2026-05-06 20:59 42.06692 179.53331 36746 ft 548 kts 102°
2026-05-06 21:00 42.05268 179.63375 36751 ft 549 kts 102°
2026-05-06 21:00 42.03826 179.73488 36749 ft 549 kts 102°
2026-05-06 21:01 42.02373 179.83605 36749 ft 549 kts 102°
2026-05-06 21:01 42.00926 179.93629 36750 ft 549 kts 102°
2026-05-06 21:02 41.99451 -179.96272 36741 ft 549 kts 102°
2026-05-06 21:02 41.97915 -179.86179 36802 ft 548 kts 103°
2026-05-06 21:03 41.96373 -179.76208 36893 ft 546 kts 103°
2026-05-06 21:03 41.94822 -179.66198 36919 ft 546 kts 103°
2026-05-06 21:04 41.93276 -179.56241 36921 ft 547 kts 103°
2026-05-06 21:04 41.91710 -179.46202 36923 ft 547 kts 103°
2026-05-06 21:05 41.90145 -179.36229 36908 ft 548 kts 103°
2026-05-06 21:05 41.88567 -179.26241 36917 ft 549 kts 103°
2026-05-06 21:06 41.86972 -179.16200 36916 ft 549 kts 103°
2026-05-06 21:06 41.85374 -179.06201 36927 ft 550 kts 103°
2026-05-06 21:07 41.83758 -178.96149 36922 ft 550 kts 104°
2026-05-06 21:07 41.82141 -178.86155 36924 ft 550 kts 104°
2026-05-06 21:08 41.80503 -178.76090 36918 ft 551 kts 104°
2026-05-06 21:08 41.78870 -178.66107 36923 ft 551 kts 104°
2026-05-06 21:09 41.77215 -178.56052 36912 ft 551 kts 104°
2026-05-06 21:09 41.75563 -178.46064 36906 ft 551 kts 104°
2026-05-06 21:10 41.73891 -178.36028 36917 ft 551 kts 104°
2026-05-06 21:10 41.72208 -178.25989 36912 ft 551 kts 104°
2026-05-06 21:11 41.70528 -178.16008 36910 ft 551 kts 104°
2026-05-06 21:11 41.68843 -178.06058 36929 ft 551 kts 104°
2026-05-06 21:12 41.67137 -177.96039 36910 ft 551 kts 104°
2026-05-06 21:12 41.65433 -177.86092 36919 ft 550 kts 104°
2026-05-06 21:13 41.63716 -177.76130 36904 ft 547 kts 104°
2026-05-06 21:13 41.62009 -177.66279 36898 ft 543 kts 104°
2026-05-06 21:14 41.60303 -177.56467 36895 ft 540 kts 104°
2026-05-06 21:14 41.58588 -177.46668 36909 ft 539 kts 104°
2026-05-06 21:15 41.56878 -177.36962 36911 ft 539 kts 104°
2026-05-06 21:15 41.55158 -177.27246 36937 ft 540 kts 104°
2026-05-06 21:16 41.53416 -177.17455 36943 ft 541 kts 104°
2026-05-06 21:16 41.51676 -177.07730 36943 ft 542 kts 104°
2026-05-06 21:17 41.49909 -176.97898 36947 ft 543 kts 105°
2026-05-06 21:17 41.48144 -176.88131 36948 ft 544 kts 105°
2026-05-06 21:18 41.46355 -176.78279 36942 ft 545 kts 105°
2026-05-06 21:18 41.44569 -176.68497 36946 ft 546 kts 105°
2026-05-06 21:19 41.42758 -176.58638 36953 ft 546 kts 105°
2026-05-06 21:19 41.40954 -176.48859 36982 ft 546 kts 105°
2026-05-06 21:20 41.39130 -176.39028 36983 ft 546 kts 105°
2026-05-06 21:20 41.37308 -176.29251 36985 ft 546 kts 105°
2026-05-06 21:21 41.35462 -176.19401 36981 ft 546 kts 105°
2026-05-06 21:21 41.33619 -176.09623 36980 ft 546 kts 106°
2026-05-06 21:22 41.31761 -175.99804 36982 ft 546 kts 106°
2026-05-06 21:22 41.29905 -175.90046 36983 ft 546 kts 106°
2026-05-06 21:23 41.28028 -175.80229 36979 ft 546 kts 106°
2026-05-06 21:23 41.26154 -175.70479 36978 ft 546 kts 106°
2026-05-06 21:24 41.24273 -175.60741 36982 ft 546 kts 106°
2026-05-06 21:24 41.22371 -175.50939 36981 ft 546 kts 107°
2026-05-06 21:25 41.20476 -175.41226 36987 ft 546 kts 107°
2026-05-06 21:25 41.18557 -175.31434 36992 ft 546 kts 107°
2026-05-06 21:26 41.16636 -175.21679 36991 ft 546 kts 107°
2026-05-06 21:26 41.14714 -175.11967 36991 ft 547 kts 107°
2026-05-06 21:27 41.12781 -175.02244 36991 ft 547 kts 107°
2026-05-06 21:27 41.10825 -174.92462 36992 ft 548 kts 107°
2026-05-06 21:28 41.08862 -174.82687 36988 ft 548 kts 107°
2026-05-06 21:28 41.06900 -174.72966 36992 ft 548 kts 107°
2026-05-06 21:29 41.04919 -174.63192 36991 ft 549 kts 107°
2026-05-06 21:29 41.02929 -174.53422 36993 ft 549 kts 107°
2026-05-06 21:30 41.01269 -174.45305 36990 ft 549 kts 107°
2026-05-06 21:30 40.99260 -174.35526 36990 ft 549 kts 108°
2026-05-06 21:31 40.97254 -174.25806 36991 ft 549 kts 108°
2026-05-06 21:31 40.95228 -174.16035 36993 ft 549 kts 108°
2026-05-06 21:32 40.93208 -174.06347 37054 ft 548 kts 108°
2026-05-06 21:32 40.90145 -173.91737 37059 ft 549 kts 108°
2026-05-06 21:33 40.88112 -173.82082 37070 ft 549 kts 108°
2026-05-06 21:33 40.86050 -173.72339 37090 ft 549 kts 108°
2026-05-06 21:34 40.83977 -173.62605 37101 ft 550 kts 108°
2026-05-06 21:34 40.81909 -173.52929 37102 ft 550 kts 108°
2026-05-06 21:35 40.79817 -173.43182 37091 ft 550 kts 108°
2026-05-06 21:35 40.77728 -173.33496 37097 ft 551 kts 108°
2026-05-06 21:36 40.75617 -173.23753 37088 ft 551 kts 109°
2026-05-06 21:36 40.73512 -173.14072 37084 ft 551 kts 109°
2026-05-06 21:37 40.71386 -173.04347 37090 ft 551 kts 109°
2026-05-06 21:37 40.69261 -172.94669 37089 ft 551 kts 109°
2026-05-06 21:38 40.67116 -172.84943 37098 ft 551 kts 109°
2026-05-06 21:38 40.64979 -172.75298 37090 ft 551 kts 109°
2026-05-06 21:39 40.62819 -172.65597 37095 ft 552 kts 109°
2026-05-06 21:39 40.60648 -172.55883 37089 ft 552 kts 109°
2026-05-06 21:40 40.58475 -172.46192 37095 ft 552 kts 110°
2026-05-06 21:40 40.56302 -172.36550 37099 ft 552 kts 110°
2026-05-06 21:41 40.54118 -172.26903 37093 ft 552 kts 110°
2026-05-06 21:41 40.51915 -172.17210 37088 ft 553 kts 110°
2026-05-06 21:42 40.49701 -172.07517 37096 ft 553 kts 110°
2026-05-06 21:42 40.47488 -171.97876 37086 ft 553 kts 110°
2026-05-06 21:43 40.45257 -171.88185 37099 ft 554 kts 110°
2026-05-06 21:43 40.43026 -171.78544 37089 ft 554 kts 110°
2026-05-06 21:44 40.40768 -171.68826 37085 ft 554 kts 110°
2026-05-06 21:44 40.38522 -171.59208 37102 ft 554 kts 110°
2026-05-06 21:45 40.36255 -171.49527 37094 ft 554 kts 110°
2026-05-06 21:45 40.33994 -171.39913 37101 ft 553 kts 110°
2026-05-06 21:46 40.31716 -171.30271 37083 ft 553 kts 111°
2026-05-06 21:46 40.29428 -171.20624 37099 ft 553 kts 111°
2026-05-06 21:47 40.27147 -171.11052 37088 ft 552 kts 111°
2026-05-06 21:47 40.24846 -171.01436 37089 ft 552 kts 111°
2026-05-06 21:48 40.22555 -170.91898 37096 ft 551 kts 111°
2026-05-06 21:48 40.20245 -170.82323 37099 ft 551 kts 111°
2026-05-06 21:49 40.17939 -170.72802 37105 ft 551 kts 111°
2026-05-06 21:49 40.15613 -170.63240 37106 ft 551 kts 111°
2026-05-06 21:50 40.13278 -170.53675 37096 ft 552 kts 111°
2026-05-06 21:50 40.10933 -170.44109 37110 ft 552 kts 111°
2026-05-06 21:51 40.08590 -170.34587 37102 ft 552 kts 111°
2026-05-06 21:51 40.06237 -170.25065 37103 ft 553 kts 112°
2026-05-06 21:52 40.03876 -170.15543 37099 ft 553 kts 112°
2026-05-06 21:52 40.01570 -170.05961 37108 ft 556 kts 107°
2026-05-06 21:53 40.00363 -169.95936 37111 ft 560 kts 95°
2026-05-06 21:53 40.00430 -169.85817 37106 ft 561 kts 86°
2026-05-06 21:54 40.00930 -169.75638 37100 ft 562 kts 86°
2026-05-06 21:54 40.01412 -169.65516 37109 ft 562 kts 86°
2026-05-06 21:55 40.01839 -169.55292 37101 ft 562 kts 87°
2026-05-06 21:55 40.02228 -169.45093 37104 ft 562 kts 87°
2026-05-06 21:56 40.02604 -169.34961 37105 ft 561 kts 87°
2026-05-06 21:56 40.02981 -169.24768 37105 ft 560 kts 87°
2026-05-06 21:57 40.03347 -169.14653 37101 ft 560 kts 88°
2026-05-06 21:57 40.03705 -169.04488 37103 ft 558 kts 88°
2026-05-06 21:58 40.04052 -168.94400 37100 ft 558 kts 88°
2026-05-06 21:58 40.04393 -168.84255 37103 ft 558 kts 88°
2026-05-06 21:59 40.04722 -168.74173 37103 ft 557 kts 88°
2026-05-06 21:59 40.05042 -168.64108 37104 ft 557 kts 88°
2026-05-06 22:00 40.05356 -168.53962 37107 ft 557 kts 88°
2026-05-06 22:00 40.05661 -168.43836 37102 ft 558 kts 88°
2026-05-06 22:01 40.05954 -168.33774 37099 ft 558 kts 88°
2026-05-06 22:01 40.06243 -168.23597 37103 ft 559 kts 88°
2026-05-06 22:02 40.06519 -168.13493 37105 ft 560 kts 88°
2026-05-06 22:02 40.06789 -168.03318 37101 ft 560 kts 88°
2026-05-06 22:03 40.07049 -167.93191 37099 ft 560 kts 88°
2026-05-06 22:03 40.07302 -167.83011 37110 ft 561 kts 88°
2026-05-06 22:04 40.07546 -167.72806 37104 ft 561 kts 88°
2026-05-06 22:04 40.07780 -167.62655 37104 ft 561 kts 88°
2026-05-06 22:05 40.08008 -167.52441 37090 ft 561 kts 88°
2026-05-06 22:05 40.08223 -167.42297 37094 ft 561 kts 88°
2026-05-06 22:06 40.08431 -167.32106 37095 ft 560 kts 89°
2026-05-06 22:06 40.08630 -167.21916 37093 ft 559 kts 89°
2026-05-06 22:07 40.08818 -167.11814 37092 ft 559 kts 88°
2026-05-06 22:07 40.08999 -167.01642 37090 ft 558 kts 89°
2026-05-06 22:08 40.09170 -166.91556 37095 ft 557 kts 89°
2026-05-06 22:08 40.09333 -166.81420 37087 ft 556 kts 89°
2026-05-06 22:09 40.09485 -166.71366 37091 ft 556 kts 89°
2026-05-06 22:09 40.09629 -166.61295 37087 ft 556 kts 89°
2026-05-06 22:10 40.09765 -166.51176 37091 ft 557 kts 89°
2026-05-06 22:10 40.09892 -166.41112 37152 ft 556 kts 89°
2026-05-06 22:11 40.10010 -166.30979 37164 ft 557 kts 89°
2026-05-06 22:11 40.10121 -166.20893 37170 ft 558 kts 89°
2026-05-06 22:12 40.10223 -166.10716 37164 ft 560 kts 89°
2026-05-06 22:12 40.10315 -166.00586 37169 ft 561 kts 89°
2026-05-06 22:13 40.10399 -165.90369 37167 ft 562 kts 89°
2026-05-06 22:13 40.10473 -165.80193 37166 ft 562 kts 89°
2026-05-06 22:14 40.10540 -165.69932 37170 ft 562 kts 89°
2026-05-06 22:14 40.10596 -165.59766 37165 ft 562 kts 89°
2026-05-06 22:15 40.10644 -165.49533 37164 ft 562 kts 89°
2026-05-06 22:15 40.10683 -165.39391 37160 ft 561 kts 89°
2026-05-06 22:16 40.10713 -165.29190 37159 ft 559 kts 89°
2026-05-06 22:16 40.10734 -165.19029 37165 ft 558 kts 89°
2026-05-06 22:17 40.10747 -165.08959 37177 ft 556 kts 89°
2026-05-06 22:17 40.10751 -164.98863 37176 ft 555 kts 89°
2026-05-06 22:18 40.10746 -164.88757 37175 ft 555 kts 89°
2026-05-06 22:18 40.10732 -164.78666 37174 ft 555 kts 89°
2026-05-06 22:19 40.10709 -164.68624 37179 ft 555 kts 89°
2026-05-06 22:19 40.10678 -164.58494 37170 ft 556 kts 89°
2026-05-06 22:20 40.10637 -164.48422 37180 ft 556 kts 89°
2026-05-06 22:20 40.10596 -164.40003 37178 ft 557 kts 89°
2026-05-06 22:21 40.10531 -164.28204 37172 ft 558 kts 89°
2026-05-06 22:21 40.10476 -164.19742 37179 ft 559 kts 90°
2026-05-06 22:22 40.10401 -164.09546 37173 ft 560 kts 90°
2026-05-06 22:22 40.10317 -163.99406 37180 ft 561 kts 90°
2026-05-06 22:23 40.10224 -163.89176 37173 ft 562 kts 90°
2026-05-06 22:23 40.10123 -163.79001 37178 ft 562 kts 90°
2026-05-06 22:24 40.10012 -163.68759 37178 ft 562 kts 90°
2026-05-06 22:24 40.09892 -163.58526 37178 ft 562 kts 90°
2026-05-06 22:25 40.09764 -163.48360 37170 ft 561 kts 90°
2026-05-06 22:25 40.09627 -163.38154 37179 ft 559 kts 90°
2026-05-06 22:26 40.09483 -163.28057 37177 ft 557 kts 90°
2026-05-06 22:26 40.09329 -163.17999 37170 ft 554 kts 90°
2026-05-06 22:27 40.09167 -163.07942 37177 ft 552 kts 90°
2026-05-06 22:27 40.08997 -162.97880 37175 ft 551 kts 90°
2026-05-06 22:28 40.08820 -162.87939 37177 ft 549 kts 90°
2026-05-06 22:28 40.08633 -162.77966 37173 ft 548 kts 90°
2026-05-06 22:29 40.08440 -162.68065 37173 ft 548 kts 89°
2026-05-06 22:29 40.08238 -162.58099 37170 ft 548 kts 89°
2026-05-06 22:30 40.08026 -162.48130 37175 ft 548 kts 89°
2026-05-06 22:30 40.07808 -162.38230 37177 ft 548 kts 89°
2026-05-06 22:31 40.07579 -162.28250 37171 ft 548 kts 89°
2026-05-06 22:31 40.07343 -162.18339 37165 ft 548 kts 89°
2026-05-06 22:32 40.07097 -162.08355 37160 ft 549 kts 89°
2026-05-06 22:32 40.06844 -161.98434 37167 ft 549 kts 89°
2026-05-06 22:33 40.06581 -161.88451 37167 ft 550 kts 89°
2026-05-06 22:33 40.06310 -161.78495 37169 ft 550 kts 90°
2026-05-06 22:34 40.06028 -161.68494 37166 ft 550 kts 90°
2026-05-06 22:34 40.05741 -161.58570 37169 ft 549 kts 90°
2026-05-06 22:35 40.05443 -161.48593 37169 ft 549 kts 90°
2026-05-06 22:35 40.05139 -161.38624 37165 ft 548 kts 89°
2026-05-06 22:36 40.04827 -161.28739 37163 ft 547 kts 90°
2026-05-06 22:36 40.04505 -161.18819 37160 ft 544 kts 89°
2026-05-06 22:37 40.04178 -161.09008 37162 ft 541 kts 89°
2026-05-06 22:37 40.03843 -160.99194 37166 ft 539 kts 89°
2026-05-06 22:38 40.03505 -160.89485 37169 ft 537 kts 89°
2026-05-06 22:38 40.03159 -160.79748 37167 ft 536 kts 89°
2026-05-06 22:39 40.02803 -160.70012 37167 ft 535 kts 89°
2026-05-06 22:39 40.02440 -160.60362 37169 ft 535 kts 89°
2026-05-06 22:40 40.02069 -160.50661 37172 ft 533 kts 89°
2026-05-06 22:40 40.01695 -160.41040 37169 ft 533 kts 89°
2026-05-06 22:41 40.01110 -160.26520 37163 ft 533 kts 89°
2026-05-06 22:42 40.00715 -160.16904 37185 ft 533 kts 89°
2026-05-06 22:42 40.00313 -160.07238 37187 ft 533 kts 89°
2026-05-06 22:43 40.00028 -159.97627 37188 ft 530 kts 83°
2026-05-06 22:43 40.00420 -159.88007 37177 ft 529 kts 81°
2026-05-06 22:44 40.00878 -159.78421 37178 ft 528 kts 81°
2026-05-06 22:44 40.01301 -159.68893 37184 ft 528 kts 82°
2026-05-06 22:45 40.01686 -159.59343 37176 ft 528 kts 82°
2026-05-06 22:45 40.02056 -159.49746 37182 ft 528 kts 82°
2026-05-06 22:46 40.02421 -159.40144 37178 ft 528 kts 82°
2026-05-06 22:46 40.02780 -159.30610 37174 ft 527 kts 82°
2026-05-06 22:47 40.03132 -159.21032 37155 ft 526 kts 82°
2026-05-06 22:47 40.03471 -159.11492 37150 ft 526 kts 82°
2026-05-06 22:48 40.03802 -159.02038 37147 ft 524 kts 82°
2026-05-06 22:48 40.04127 -158.92538 37146 ft 523 kts 81°
2026-05-06 22:49 40.04442 -158.83069 37149 ft 521 kts 81°
2026-05-06 22:49 40.04750 -158.73662 37149 ft 520 kts 81°
2026-05-06 22:50 40.05051 -158.64218 37146 ft 519 kts 81°
2026-05-06 22:50 40.05342 -158.54790 37150 ft 518 kts 81°
2026-05-06 22:51 40.05623 -158.45434 37147 ft 518 kts 81°
2026-05-06 22:51 40.05900 -158.36015 37150 ft 517 kts 81°
2026-05-06 22:52 40.06166 -158.26682 37140 ft 517 kts 81°
2026-05-06 22:52 40.06427 -158.17283 37139 ft 516 kts 81°
2026-05-06 22:53 40.06678 -158.07952 37136 ft 517 kts 81°
2026-05-06 22:53 40.06924 -157.98557 37141 ft 517 kts 81°
2026-05-06 22:54 40.07161 -157.89205 37140 ft 517 kts 81°
2026-05-06 22:54 40.07392 -157.79794 37140 ft 518 kts 81°
2026-05-06 22:55 40.07615 -157.70369 37140 ft 518 kts 81°
2026-05-06 22:55 40.07828 -157.61012 37138 ft 518 kts 81°
2026-05-06 22:56 40.08036 -157.51567 37140 ft 518 kts 82°
2026-05-06 22:56 40.08235 -157.42215 37137 ft 518 kts 82°
2026-05-06 22:57 40.08427 -157.32785 37139 ft 517 kts 82°
2026-05-06 22:57 40.08609 -157.23453 37139 ft 515 kts 83°
2026-05-06 22:58 40.08786 -157.14100 37139 ft 513 kts 83°
2026-05-06 22:58 40.08953 -157.04839 37139 ft 512 kts 84°
2026-05-06 22:59 40.09113 -156.95537 37137 ft 510 kts 84°
2026-05-06 22:59 40.09264 -156.86324 37138 ft 508 kts 84°
2026-05-06 23:00 40.09408 -156.77089 37137 ft 507 kts 85°
2026-05-06 23:00 40.09544 -156.67937 37138 ft 505 kts 85°
2026-05-06 23:01 40.09673 -156.58760 37138 ft 504 kts 85°
2026-05-06 23:01 40.09794 -156.49620 37138 ft 502 kts 86°
2026-05-06 23:02 40.09909 -156.40546 37136 ft 501 kts 86°
2026-05-06 23:02 40.10015 -156.31442 37190 ft 499 kts 86°
2026-05-06 23:03 40.10113 -156.22412 37192 ft 499 kts 86°
2026-05-06 23:03 40.10206 -156.13321 37195 ft 499 kts 86°
2026-05-06 23:04 40.10290 -156.04271 37193 ft 500 kts 86°
2026-05-06 23:04 40.10368 -155.95161 37198 ft 500 kts 86°
2026-05-06 23:05 40.10439 -155.86102 37195 ft 501 kts 86°
2026-05-06 23:05 40.10503 -155.76979 37194 ft 501 kts 87°
2026-05-06 23:06 40.10559 -155.67906 37194 ft 501 kts 87°
2026-05-06 23:06 40.10609 -155.58776 37194 ft 501 kts 87°
2026-05-06 23:07 40.10652 -155.49708 37178 ft 501 kts 88°
2026-05-06 23:07 40.10682 -155.42120 37132 ft 501 kts 88°
2026-05-06 23:08 40.10712 -155.32991 37128 ft 500 kts 88°
2026-05-06 23:08 40.10734 -155.23967 37129 ft 498 kts 89°
2026-05-06 23:09 40.10748 -155.14899 37129 ft 497 kts 89°
2026-05-06 23:09 40.10756 -155.05937 37130 ft 495 kts 90°
2026-05-06 23:10 40.10757 -154.96965 37139 ft 492 kts 90°
2026-05-06 23:10 40.10751 -154.88027 37148 ft 490 kts 90°
2026-05-06 23:11 40.10739 -154.79175 37147 ft 489 kts 91°
2026-05-06 23:11 40.10720 -154.70278 37148 ft 487 kts 91°
2026-05-06 23:12 40.10693 -154.61477 37148 ft 486 kts 91°
2026-05-06 23:12 40.10661 -154.52628 37146 ft 485 kts 92°
2026-05-06 23:13 40.10622 -154.43880 37149 ft 484 kts 92°
2026-05-06 23:13 40.10577 -154.35066 37148 ft 483 kts 92°
2026-05-06 23:14 40.10525 -154.26320 37147 ft 483 kts 92°
2026-05-06 23:14 40.10466 -154.17537 37149 ft 483 kts 92°
2026-05-06 23:15 40.10399 -154.08795 37138 ft 483 kts 92°
2026-05-06 23:15 40.10327 -154.00007 37131 ft 483 kts 92°
2026-05-06 23:16 40.10249 -153.91216 37131 ft 483 kts 93°
2026-05-06 23:16 40.10164 -153.82476 37128 ft 483 kts 93°
2026-05-06 23:17 40.10072 -153.73733 37129 ft 483 kts 93°
2026-05-06 23:17 40.09972 -153.64933 37129 ft 483 kts 93°
2026-05-06 23:18 40.09867 -153.56206 37128 ft 483 kts 93°
2026-05-06 23:18 40.09755 -153.47410 37125 ft 483 kts 94°
2026-05-06 23:19 40.09639 -153.38686 37119 ft 482 kts 94°
2026-05-06 23:19 40.09514 -153.29929 37119 ft 481 kts 94°
2026-05-06 23:20 40.09384 -153.21228 37119 ft 480 kts 95°
2026-05-06 23:20 40.09245 -153.12496 37124 ft 479 kts 95°
2026-05-06 23:21 40.09103 -153.03865 37117 ft 476 kts 95°
2026-05-06 23:21 40.08951 -152.95208 37121 ft 475 kts 96°
2026-05-06 23:22 40.08799 -152.86592 37122 ft 473 kts 96°
2026-05-06 23:22 40.08642 -152.78046 37124 ft 472 kts 96°
2026-05-06 23:23 40.08470 -152.69476 37118 ft 469 kts 97°
2026-05-06 23:23 40.08298 -152.61002 37134 ft 469 kts 97°
2026-05-06 23:24 40.08129 -152.52469 37120 ft 469 kts 97°
2026-05-06 23:24 40.07947 -152.44001 37121 ft 468 kts 97°
2026-05-06 23:25 40.07749 -152.35491 37125 ft 466 kts 97°
2026-05-06 23:25 40.07552 -152.26998 37121 ft 467 kts 98°
2026-05-06 23:26 40.07346 -152.18536 37117 ft 468 kts 98°
2026-05-06 23:26 40.07137 -152.10026 37100 ft 467 kts 98°
2026-05-06 23:27 40.06939 -152.01603 37098 ft 465 kts 98°
2026-05-06 23:27 40.06716 -151.93167 37099 ft 464 kts 98°
2026-05-06 23:28 40.06486 -151.84754 37094 ft 466 kts 98°
2026-05-06 23:28 40.06254 -151.76323 37100 ft 462 kts 98°
2026-05-06 23:29 40.06012 -151.67966 37103 ft 463 kts 98°
2026-05-06 23:29 40.05767 -151.59538 37101 ft 463 kts 98°
2026-05-06 23:30 40.05521 -151.51153 37101 ft 465 kts 98°
2026-05-06 23:30 40.05266 -151.42708 37107 ft 465 kts 98°
2026-05-06 23:31 40.05000 -151.34265 37108 ft 464 kts 99°
2026-05-06 23:31 40.04728 -151.25876 37099 ft 465 kts 99°
2026-05-06 23:32 40.04456 -151.17414 37098 ft 465 kts 99°
2026-05-06 23:32 40.04178 -151.09017 37107 ft 465 kts 99°
2026-05-06 23:33 40.03892 -151.00549 37102 ft 466 kts 99°
2026-05-06 23:33 40.03598 -150.92123 37105 ft 467 kts 99°
2026-05-06 23:34 40.03301 -150.83686 37098 ft 467 kts 99°
2026-05-06 23:34 40.02996 -150.75231 37112 ft 466 kts 100°
2026-05-06 23:35 40.02682 -150.66756 37097 ft 466 kts 100°
2026-05-06 23:35 40.02363 -150.58315 37102 ft 465 kts 100°
2026-05-06 23:36 40.02041 -150.49922 37106 ft 465 kts 100°
2026-05-06 23:36 40.01713 -150.41476 37107 ft 464 kts 100°
2026-05-06 23:37 40.01376 -150.33057 37103 ft 464 kts 100°
2026-05-06 23:37 40.01037 -150.24696 37106 ft 462 kts 101°
2026-05-06 23:38 40.00691 -150.16297 37103 ft 463 kts 101°
2026-05-06 23:38 40.00339 -150.07944 37100 ft 463 kts 101°
2026-05-06 23:39 39.99981 -149.99557 37102 ft 463 kts 101°
2026-05-06 23:39 39.99541 -149.91189 37101 ft 461 kts 102°
2026-05-06 23:40 39.99050 -149.82889 37107 ft 461 kts 102°
2026-05-06 23:40 39.98546 -149.74529 37102 ft 461 kts 102°
2026-05-06 23:41 39.98051 -149.66169 37107 ft 463 kts 102°
2026-05-06 23:41 39.97558 -149.57830 37098 ft 463 kts 102°
2026-05-06 23:42 39.97058 -149.49488 37104 ft 463 kts 102°
2026-05-06 23:42 39.96547 -149.41094 37110 ft 464 kts 102°
2026-05-06 23:43 39.96034 -149.32708 37115 ft 464 kts 102°
2026-05-06 23:43 39.95514 -149.24367 37108 ft 464 kts 103°
2026-05-06 23:44 39.94982 -149.15948 37110 ft 465 kts 103°
2026-05-06 23:44 39.94446 -149.07526 37111 ft 465 kts 103°
2026-05-06 23:45 39.93910 -148.99169 37110 ft 465 kts 103°
2026-05-06 23:45 39.93361 -148.90754 37108 ft 466 kts 103°
2026-05-06 23:46 39.92804 -148.82303 37110 ft 467 kts 103°
2026-05-06 23:46 39.92243 -148.73865 37110 ft 467 kts 104°
2026-05-06 23:47 39.91676 -148.65458 37108 ft 468 kts 104°
2026-05-06 23:47 39.91101 -148.57009 37107 ft 468 kts 104°
2026-05-06 23:48 39.90524 -148.48613 37110 ft 468 kts 104°
2026-05-06 23:48 39.89936 -148.40158 37108 ft 468 kts 104°
2026-05-06 23:49 39.89346 -148.31749 37116 ft 468 kts 104°
2026-05-06 23:49 39.88746 -148.23311 37109 ft 468 kts 104°
2026-05-06 23:50 39.88140 -148.14858 37116 ft 467 kts 105°
2026-05-06 23:50 39.87225 -148.02262 37109 ft 467 kts 105°
2026-05-06 23:51 39.86605 -147.93836 37112 ft 467 kts 105°
2026-05-06 23:51 39.85980 -147.85429 37109 ft 466 kts 105°
2026-05-06 23:52 39.85352 -147.77058 37109 ft 466 kts 105°
2026-05-06 23:52 39.84713 -147.68642 37112 ft 466 kts 105°
2026-05-06 23:53 39.84072 -147.60275 37109 ft 467 kts 105°
2026-05-06 23:53 39.83424 -147.51884 37107 ft 468 kts 105°
2026-05-06 23:54 39.82766 -147.43447 37115 ft 468 kts 105°
2026-05-06 23:54 39.82212 -147.36416 37109 ft 469 kts 105°
2026-05-06 23:55 39.81539 -147.27943 37109 ft 470 kts 104°
2026-05-06 23:55 39.80864 -147.19518 37109 ft 471 kts 104°
2026-05-06 23:56 39.80177 -147.11011 37116 ft 472 kts 104°
2026-05-06 23:56 39.79486 -147.02546 37114 ft 474 kts 104°
2026-05-06 23:57 39.78778 -146.93957 37413 ft 475 kts 104°
2026-05-06 23:57 39.78425 -146.89684 37631 ft 475 kts 104°
2026-05-06 23:57 39.78074 -146.85459 37835 ft 475 kts 104°
2026-05-06 23:58 39.77717 -146.81192 37971 ft 476 kts 104°
2026-05-06 23:58 39.77358 -146.76912 38107 ft 477 kts 104°
2026-05-06 23:58 39.76995 -146.72612 38283 ft 477 kts 104°
2026-05-06 23:58 39.76631 -146.68310 38455 ft 477 kts 104°
2026-05-06 23:59 39.76268 -146.64060 38572 ft 479 kts 104°
2026-05-06 23:59 39.75899 -146.59753 38739 ft 479 kts 104°
2026-05-06 23:59 39.75530 -146.55444 38921 ft 478 kts 104°
2026-05-06 23:59 39.75159 -146.51140 39009 ft 478 kts 104°
2026-05-07 00:00 39.74410 -146.42523 39106 ft 480 kts 103°
2026-05-07 00:00 39.73658 -146.33931 39112 ft 481 kts 104°
2026-05-07 00:01 39.72893 -146.25290 39143 ft 481 kts 103°
2026-05-07 00:01 39.72129 -146.16701 39180 ft 481 kts 103°
2026-05-07 00:02 39.71352 -146.08066 39185 ft 481 kts 103°
2026-05-07 00:02 39.70567 -145.99402 39188 ft 481 kts 103°
2026-05-07 00:03 39.69782 -145.90806 39183 ft 481 kts 103°
2026-05-07 00:03 39.68984 -145.82157 39184 ft 481 kts 103°
2026-05-07 00:04 39.68187 -145.73576 39182 ft 481 kts 104°
2026-05-07 00:04 39.67376 -145.64938 39197 ft 480 kts 104°
2026-05-07 00:05 39.66562 -145.56316 39185 ft 480 kts 104°
2026-05-07 00:05 39.65748 -145.47748 39183 ft 480 kts 104°
2026-05-07 00:06 39.64921 -145.39132 39189 ft 480 kts 104°
2026-05-07 00:06 39.64093 -145.30576 39183 ft 479 kts 104°
2026-05-07 00:07 39.63254 -145.21969 39183 ft 479 kts 104°
2026-05-07 00:07 39.62415 -145.13436 39185 ft 479 kts 104°
2026-05-07 00:08 39.61566 -145.04854 39184 ft 478 kts 104°
2026-05-07 00:08 39.60716 -144.96333 39183 ft 478 kts 104°
2026-05-07 00:09 39.59861 -144.87827 39183 ft 478 kts 104°
2026-05-07 00:09 39.58994 -144.79275 39183 ft 477 kts 104°
2026-05-07 00:10 39.58122 -144.70722 39186 ft 477 kts 104°
2026-05-07 00:10 39.57252 -144.62255 39176 ft 476 kts 105°
2026-05-07 00:11 39.56370 -144.53734 39176 ft 475 kts 105°
2026-05-07 00:11 39.55489 -144.45285 39175 ft 475 kts 105°
2026-05-07 00:12 39.54598 -144.36802 39167 ft 474 kts 105°
2026-05-07 00:12 39.53705 -144.28369 39168 ft 474 kts 104°
2026-05-07 00:13 39.52804 -144.19913 39164 ft 473 kts 104°
2026-05-07 00:13 39.51899 -144.11472 39166 ft 472 kts 104°
2026-05-07 00:14 39.50991 -144.03071 39166 ft 472 kts 104°
2026-05-07 00:14 39.50074 -143.94642 39164 ft 472 kts 104°
2026-05-07 00:15 39.49150 -143.86215 39167 ft 472 kts 104°
2026-05-07 00:15 39.48223 -143.77820 39166 ft 473 kts 104°
2026-05-07 00:16 39.47284 -143.69372 39168 ft 474 kts 104°
2026-05-07 00:16 39.46342 -143.60959 39178 ft 475 kts 105°
2026-05-07 00:17 39.45384 -143.52443 39193 ft 477 kts 105°
2026-05-07 00:17 39.44420 -143.43931 39183 ft 478 kts 105°
2026-05-07 00:18 39.43449 -143.35438 39183 ft 480 kts 105°
2026-05-07 00:18 39.42469 -143.26884 39193 ft 480 kts 105°
2026-05-07 00:19 39.41488 -143.18386 39181 ft 480 kts 105°
2026-05-07 00:19 39.40494 -143.09841 39192 ft 480 kts 105°
2026-05-07 00:20 39.39492 -143.01290 39184 ft 480 kts 105°
2026-05-07 00:20 39.38490 -142.92787 39183 ft 480 kts 105°
2026-05-07 00:21 39.37475 -142.84230 39182 ft 480 kts 105°
2026-05-07 00:21 39.36461 -142.75730 39185 ft 480 kts 105°
2026-05-07 00:22 39.35434 -142.67191 39189 ft 480 kts 105°
2026-05-07 00:22 39.34399 -142.58644 39182 ft 480 kts 105°
2026-05-07 00:23 39.33367 -142.50168 39182 ft 480 kts 106°
2026-05-07 00:23 39.32321 -142.41627 39184 ft 480 kts 106°
2026-05-07 00:24 39.31277 -142.33160 39190 ft 479 kts 106°
2026-05-07 00:24 39.30220 -142.24633 39184 ft 479 kts 106°
2026-05-07 00:25 39.29164 -142.16171 39181 ft 479 kts 106°
2026-05-07 00:25 39.28095 -142.07654 39181 ft 479 kts 106°
2026-05-07 00:26 39.27027 -141.99197 39189 ft 479 kts 106°
2026-05-07 00:26 39.25947 -141.90700 39196 ft 480 kts 105°
2026-05-07 00:27 39.24863 -141.82219 39191 ft 481 kts 106°
2026-05-07 00:27 39.23763 -141.73676 39200 ft 482 kts 106°
2026-05-07 00:28 39.22665 -141.65181 39195 ft 483 kts 106°
2026-05-07 00:28 39.21553 -141.56632 39190 ft 483 kts 106°
2026-05-07 00:29 39.20430 -141.48056 39195 ft 484 kts 106°
2026-05-07 00:30 39.18169 -141.30931 39194 ft 485 kts 106°
2026-05-07 00:30 39.17032 -141.22400 39191 ft 486 kts 106°
2026-05-07 00:31 39.15878 -141.13792 39200 ft 486 kts 106°
2026-05-07 00:31 39.14721 -141.05195 39194 ft 487 kts 106°
2026-05-07 00:32 39.13559 -140.96634 39202 ft 487 kts 106°
2026-05-07 00:32 39.12385 -140.88022 39190 ft 487 kts 106°
2026-05-07 00:33 39.11210 -140.79457 39190 ft 488 kts 106°
2026-05-07 00:33 39.10021 -140.70831 39179 ft 488 kts 106°
2026-05-07 00:34 39.08833 -140.62266 39192 ft 488 kts 106°
2026-05-07 00:34 39.07630 -140.53642 39184 ft 488 kts 106°
2026-05-07 00:35 39.06428 -140.45072 39182 ft 488 kts 106°
2026-05-07 00:35 39.05215 -140.36462 39185 ft 488 kts 106°
2026-05-07 00:36 39.03993 -140.27847 39195 ft 488 kts 106°
2026-05-07 00:36 39.02773 -140.19287 39166 ft 488 kts 106°
2026-05-07 00:37 39.01546 -140.10728 39166 ft 488 kts 106°
2026-05-07 00:37 39.00309 -140.02132 39166 ft 488 kts 105°
2026-05-07 00:38 38.99524 -139.93389 39166 ft 493 kts 98°
2026-05-07 00:38 38.99059 -139.84626 39168 ft 494 kts 98°
2026-05-07 00:39 38.98593 -139.75788 39165 ft 494 kts 98°
2026-05-07 00:39 38.98095 -139.67012 39167 ft 494 kts 98°
2026-05-07 00:40 38.97570 -139.58183 39177 ft 494 kts 98°
2026-05-07 00:40 38.97038 -139.49419 39185 ft 494 kts 98°
2026-05-07 00:41 38.96498 -139.40598 39199 ft 494 kts 98°
2026-05-07 00:41 38.95956 -139.31826 39182 ft 494 kts 98°
2026-05-07 00:42 38.95404 -139.23008 39190 ft 495 kts 98°
2026-05-07 00:42 38.94938 -139.15656 39182 ft 495 kts 98°
2026-05-07 00:43 38.94377 -139.06881 39184 ft 495 kts 98°
2026-05-07 00:43 38.93805 -138.98057 39183 ft 494 kts 98°
2026-05-07 00:44 38.93230 -138.89293 39187 ft 495 kts 98°
2026-05-07 00:44 38.92645 -138.80459 39184 ft 495 kts 98°
2026-05-07 00:45 38.92057 -138.71681 39184 ft 494 kts 98°
2026-05-07 00:45 38.91459 -138.62857 39183 ft 495 kts 98°
2026-05-07 00:46 38.90859 -138.54106 39181 ft 495 kts 98°
2026-05-07 00:46 38.90246 -138.45271 39195 ft 495 kts 98°
2026-05-07 00:47 38.89631 -138.36502 39183 ft 496 kts 98°
2026-05-07 00:47 38.89005 -138.27664 39184 ft 496 kts 98°
2026-05-07 00:48 38.88373 -138.18838 39189 ft 496 kts 98°
2026-05-07 00:48 38.87739 -138.10066 39189 ft 496 kts 98°
2026-05-07 00:49 38.87093 -138.01232 39183 ft 496 kts 98°
2026-05-07 00:49 38.86444 -137.92455 39185 ft 496 kts 98°
2026-05-07 00:50 38.85784 -137.83623 39191 ft 496 kts 98°
2026-05-07 00:50 38.85122 -137.74851 39181 ft 496 kts 98°
2026-05-07 00:51 38.84449 -137.66017 39196 ft 496 kts 98°
2026-05-07 00:51 38.83775 -137.57255 39194 ft 496 kts 98°
2026-05-07 00:52 38.83089 -137.48446 39193 ft 496 kts 98°
2026-05-07 00:52 38.82398 -137.39632 39198 ft 495 kts 98°
2026-05-07 00:53 38.81704 -137.30871 39191 ft 495 kts 98°
2026-05-07 00:53 38.81000 -137.22064 39192 ft 495 kts 98°
2026-05-07 00:54 38.80293 -137.13313 39193 ft 495 kts 98°
2026-05-07 00:54 38.79575 -137.04507 39195 ft 495 kts 97°
2026-05-07 00:55 38.78855 -136.95768 39191 ft 495 kts 97°
2026-05-07 00:55 38.78125 -136.86980 39194 ft 494 kts 97°
2026-05-07 00:56 38.77393 -136.78256 39190 ft 494 kts 97°
2026-05-07 00:56 38.76651 -136.69489 39194 ft 494 kts 97°
2026-05-07 00:57 38.75902 -136.60712 39188 ft 494 kts 97°
2026-05-07 00:57 38.75152 -136.52002 39192 ft 494 kts 97°
2026-05-07 00:58 38.74389 -136.43222 39192 ft 494 kts 97°
2026-05-07 00:58 38.73620 -136.34452 39199 ft 495 kts 97°
2026-05-07 00:59 38.72459 -136.21338 39192 ft 495 kts 97°
2026-05-07 01:00 38.71676 -136.12616 39199 ft 495 kts 97°
2026-05-07 01:00 38.70883 -136.03833 39199 ft 495 kts 97°
2026-05-07 01:01 38.70085 -135.95068 39194 ft 495 kts 97°
2026-05-07 01:01 38.69285 -135.86365 39198 ft 495 kts 97°
2026-05-07 01:02 38.68474 -135.77608 39189 ft 494 kts 97°
2026-05-07 01:02 38.67657 -135.68869 39203 ft 494 kts 97°
2026-05-07 01:03 38.66840 -135.60194 39191 ft 494 kts 97°
2026-05-07 01:03 38.66011 -135.51460 39192 ft 494 kts 97°
2026-05-07 01:04 38.65177 -135.42732 39194 ft 493 kts 97°
2026-05-07 01:04 38.64337 -135.34023 39200 ft 493 kts 97°
2026-05-07 01:05 38.63491 -135.25322 39204 ft 492 kts 97°
2026-05-07 01:05 38.62643 -135.16676 39200 ft 492 kts 97°
2026-05-07 01:06 38.61790 -135.08041 39201 ft 491 kts 97°
2026-05-07 01:06 38.60926 -134.99360 39202 ft 491 kts 97°
2026-05-07 01:07 38.60058 -134.90700 39208 ft 491 kts 97°
2026-05-07 01:07 38.59182 -134.82041 39202 ft 490 kts 97°
2026-05-07 01:08 38.58308 -134.73445 39202 ft 490 kts 97°
2026-05-07 01:08 38.57422 -134.64797 39210 ft 489 kts 97°
2026-05-07 01:09 38.56536 -134.56224 39205 ft 489 kts 97°
2026-05-07 01:09 38.55639 -134.47598 39197 ft 488 kts 97°
2026-05-07 01:10 38.54743 -134.39046 39205 ft 488 kts 97°
2026-05-07 01:10 38.53832 -134.30427 39198 ft 488 kts 97°
2026-05-07 01:11 38.52923 -134.21876 39201 ft 488 kts 97°
2026-05-07 01:11 38.52002 -134.13277 39197 ft 488 kts 97°
2026-05-07 01:12 38.51072 -134.04660 39202 ft 489 kts 97°
2026-05-07 01:12 38.50144 -133.96113 39212 ft 488 kts 97°
2026-05-07 01:13 38.49205 -133.87523 39209 ft 488 kts 97°
2026-05-07 01:13 38.48258 -133.78919 39214 ft 488 kts 97°
2026-05-07 01:14 38.47305 -133.70323 39216 ft 488 kts 97°
2026-05-07 01:14 38.46352 -133.61788 39212 ft 488 kts 97°
2026-05-07 01:15 38.45387 -133.53206 39215 ft 488 kts 97°
2026-05-07 01:15 38.44422 -133.44679 39212 ft 488 kts 97°
2026-05-07 01:16 38.43446 -133.36104 39207 ft 488 kts 97°
2026-05-07 01:16 38.42463 -133.27532 39215 ft 487 kts 97°
2026-05-07 01:17 38.41474 -133.18974 39213 ft 487 kts 97°
2026-05-07 01:17 38.40482 -133.10426 39216 ft 487 kts 97°
2026-05-07 01:18 38.39488 -133.01928 39213 ft 487 kts 98°
2026-05-07 01:18 38.38483 -132.93384 39210 ft 487 kts 98°
2026-05-07 01:19 38.37473 -132.84854 39211 ft 486 kts 98°
2026-05-07 01:19 38.36453 -132.76306 39209 ft 487 kts 98°
2026-05-07 01:20 38.35436 -132.67824 39213 ft 487 kts 98°
2026-05-07 01:20 38.34403 -132.59280 39209 ft 487 kts 98°
2026-05-07 01:21 38.33374 -132.50803 39210 ft 487 kts 98°
2026-05-07 01:21 38.32332 -132.42276 39211 ft 486 kts 98°
2026-05-07 01:22 38.31284 -132.33748 39212 ft 487 kts 99°
2026-05-07 01:22 38.30229 -132.25233 39210 ft 487 kts 99°
2026-05-07 01:23 38.29174 -132.16762 39211 ft 487 kts 99°
2026-05-07 01:23 38.28105 -132.08225 39211 ft 488 kts 99°
2026-05-07 01:24 38.27027 -131.99684 39211 ft 488 kts 99°
2026-05-07 01:24 38.25952 -131.91205 39211 ft 488 kts 99°
2026-05-07 01:25 38.24865 -131.82676 39210 ft 488 kts 99°
2026-05-07 01:25 38.23769 -131.74133 39217 ft 488 kts 99°
2026-05-07 01:26 38.22667 -131.65603 39217 ft 488 kts 99°
2026-05-07 01:26 38.21566 -131.57118 39210 ft 488 kts 99°
2026-05-07 01:27 38.20454 -131.48603 39207 ft 488 kts 99°
2026-05-07 01:27 38.19335 -131.40087 39211 ft 487 kts 100°
2026-05-07 01:28 38.18213 -131.31600 39211 ft 486 kts 100°
2026-05-07 01:28 38.17086 -131.23121 39211 ft 486 kts 100°
2026-05-07 01:29 38.15957 -131.14668 39217 ft 485 kts 100°
2026-05-07 01:29 38.14829 -131.06272 39209 ft 484 kts 101°
2026-05-07 01:30 38.13687 -130.97825 39212 ft 484 kts 101°
2026-05-07 01:30 38.12542 -130.89412 39213 ft 483 kts 101°
2026-05-07 01:31 38.11392 -130.80996 39216 ft 482 kts 101°
2026-05-07 01:31 38.10247 -130.72655 39209 ft 482 kts 101°
2026-05-07 01:32 38.09090 -130.64280 39215 ft 481 kts 101°
2026-05-07 01:32 38.08126 -130.57336 39209 ft 480 kts 102°
2026-05-07 01:33 38.06959 -130.48977 39217 ft 480 kts 102°
2026-05-07 01:33 38.05788 -130.40635 39214 ft 479 kts 102°
2026-05-07 01:34 38.04616 -130.32321 39206 ft 479 kts 102°
2026-05-07 01:34 38.03445 -130.24057 39211 ft 478 kts 102°
2026-05-07 01:35 38.02256 -130.15717 39196 ft 478 kts 102°
2026-05-07 01:35 38.00872 -130.06056 39198 ft 478 kts 102°
2026-05-07 01:36 37.99878 -129.99161 39196 ft 478 kts 102°
2026-05-07 01:36 37.98643 -129.90935 39185 ft 478 kts 103°
2026-05-07 01:37 37.97370 -129.82637 39197 ft 477 kts 103°
2026-05-07 01:37 37.96106 -129.74418 39192 ft 477 kts 103°
2026-05-07 01:38 37.94831 -129.66135 39201 ft 478 kts 103°
2026-05-07 01:38 37.93554 -129.57856 39192 ft 478 kts 103°
2026-05-07 01:39 37.92278 -129.49632 39193 ft 478 kts 103°
2026-05-07 01:39 37.90995 -129.41401 39191 ft 478 kts 103°
2026-05-07 01:40 37.89698 -129.33124 39186 ft 478 kts 103°
2026-05-07 01:40 37.88394 -129.24833 39187 ft 479 kts 103°
2026-05-07 01:41 37.87092 -129.16605 39195 ft 479 kts 103°
2026-05-07 01:41 37.85774 -129.08312 39192 ft 480 kts 103°
2026-05-07 01:42 37.84449 -129.00014 39191 ft 480 kts 103°
2026-05-07 01:42 37.83125 -128.91766 39191 ft 481 kts 103°
2026-05-07 01:43 37.81785 -128.83452 39191 ft 481 kts 103°
2026-05-07 01:43 37.80440 -128.75150 39195 ft 481 kts 103°
2026-05-07 01:44 37.79096 -128.66884 39195 ft 482 kts 103°
2026-05-07 01:44 37.77744 -128.58614 39198 ft 483 kts 103°
2026-05-07 01:45 37.76375 -128.50277 39191 ft 483 kts 103°
2026-05-07 01:45 37.75006 -128.41980 39191 ft 484 kts 103°
2026-05-07 01:46 37.73623 -128.33636 39190 ft 484 kts 103°
2026-05-07 01:46 37.72237 -128.25307 39190 ft 484 kts 103°
2026-05-07 01:47 37.70851 -128.17023 39191 ft 484 kts 103°
2026-05-07 01:47 37.69449 -128.08686 39196 ft 485 kts 103°
2026-05-07 01:48 37.68042 -128.00349 39197 ft 485 kts 103°
2026-05-07 01:48 37.66626 -127.91997 39184 ft 485 kts 103°
2026-05-07 01:49 37.65211 -127.83699 39181 ft 485 kts 103°
2026-05-07 01:49 37.63793 -127.75412 39182 ft 485 kts 103°
2026-05-07 01:50 37.62361 -127.67079 39182 ft 485 kts 103°
2026-05-07 01:50 37.60931 -127.58793 39173 ft 485 kts 103°
2026-05-07 01:51 37.59484 -127.50457 39177 ft 484 kts 103°
2026-05-07 01:51 37.58038 -127.42154 39174 ft 484 kts 103°
2026-05-07 01:52 37.56596 -127.33907 39175 ft 483 kts 103°
2026-05-07 01:52 37.55140 -127.25623 39174 ft 483 kts 103°
2026-05-07 01:53 37.53682 -127.17354 39173 ft 482 kts 103°
2026-05-07 01:53 37.52227 -127.09142 39175 ft 482 kts 103°
2026-05-07 01:54 37.50780 -127.00889 39180 ft 481 kts 101°
2026-05-07 01:54 37.50013 -126.92500 39173 ft 481 kts 94°
2026-05-07 01:55 37.49516 -126.84134 39175 ft 481 kts 94°
2026-05-07 01:55 37.49004 -126.75714 39175 ft 481 kts 94°
2026-05-07 01:56 37.48460 -126.67344 39175 ft 481 kts 95°
2026-05-07 01:56 37.47895 -126.58935 39174 ft 481 kts 95°
2026-05-07 01:57 37.47326 -126.50579 39175 ft 481 kts 95°
2026-05-07 01:57 37.46746 -126.42168 39175 ft 481 kts 95°
2026-05-07 01:58 37.46166 -126.33810 39176 ft 481 kts 95°
2026-05-07 01:58 37.45576 -126.25389 39177 ft 482 kts 95°
2026-05-07 01:59 37.44980 -126.16982 39175 ft 482 kts 95°
2026-05-07 01:59 37.44380 -126.08597 39176 ft 482 kts 95°
2026-05-07 02:00 37.43771 -126.00177 39177 ft 483 kts 95°
2026-05-07 02:00 37.43158 -125.91794 39177 ft 482 kts 95°
2026-05-07 02:01 37.42539 -125.83374 39174 ft 482 kts 95°
2026-05-07 02:01 37.41918 -125.75028 39175 ft 482 kts 95°
2026-05-07 02:02 37.41285 -125.66613 39170 ft 482 kts 95°
2026-05-07 02:02 37.40650 -125.58250 39165 ft 482 kts 95°
2026-05-07 02:03 37.40007 -125.49852 39166 ft 481 kts 95°
2026-05-07 02:03 37.39358 -125.41461 39165 ft 481 kts 95°
2026-05-07 02:04 37.38709 -125.33133 39165 ft 481 kts 95°
2026-05-07 02:04 37.38049 -125.24748 39167 ft 480 kts 95°
2026-05-07 02:05 37.37388 -125.16433 39166 ft 480 kts 95°
2026-05-07 02:05 37.36716 -125.08064 39167 ft 480 kts 95°
2026-05-07 02:06 37.36039 -124.99697 39166 ft 479 kts 95°
2026-05-07 02:06 37.35363 -124.91402 39170 ft 479 kts 95°
2026-05-07 02:07 37.34676 -124.83050 39176 ft 479 kts 95°
2026-05-07 02:07 37.33641 -124.70607 39165 ft 479 kts 95°
2026-05-07 02:08 37.32938 -124.62272 39160 ft 479 kts 95°
2026-05-07 02:08 37.32582 -124.58050 38374 ft 490 kts 95°
2026-05-07 02:08 37.32230 -124.53926 37678 ft 468 kts 95°
2026-05-07 02:09 37.31887 -124.49927 37015 ft 455 kts 95°
2026-05-07 02:09 37.31547 -124.45969 36349 ft 456 kts 94°
2026-05-07 02:09 37.31203 -124.41963 35611 ft 465 kts 94°
2026-05-07 02:09 37.30855 -124.37902 34753 ft 480 kts 94°
2026-05-07 02:10 37.30491 -124.33681 33825 ft 488 kts 94°
2026-05-07 02:10 37.30122 -124.29438 32867 ft 491 kts 94°
2026-05-07 02:10 37.29747 -124.25152 31882 ft 493 kts 94°
2026-05-07 02:10 37.29369 -124.20856 30850 ft 496 kts 94°
2026-05-07 02:11 37.28989 -124.16561 30133 ft 491 kts 94°
2026-05-07 02:11 37.28616 -124.12374 29392 ft 486 kts 94°
2026-05-07 02:11 37.28241 -124.08174 28625 ft 482 kts 94°
2026-05-07 02:11 37.27868 -124.04001 27878 ft 478 kts 94°
2026-05-07 02:12 37.27496 -123.99854 27136 ft 473 kts 94°
2026-05-07 02:12 37.27127 -123.95758 26395 ft 469 kts 94°
2026-05-07 02:12 37.26765 -123.91753 25685 ft 465 kts 94°
2026-05-07 02:12 37.26401 -123.87739 24965 ft 460 kts 94°
2026-05-07 02:13 37.26039 -123.83757 24253 ft 456 kts 95°
2026-05-07 02:13 37.25678 -123.79807 23545 ft 452 kts 95°
2026-05-07 02:13 37.25320 -123.75901 22846 ft 448 kts 95°
2026-05-07 02:13 37.24966 -123.72064 22159 ft 445 kts 95°
2026-05-07 02:14 37.24611 -123.68218 21470 ft 440 kts 95°
2026-05-07 02:14 37.24258 -123.64418 20783 ft 431 kts 95°
2026-05-07 02:14 37.23913 -123.60725 20137 ft 422 kts 95°
2026-05-07 02:14 37.23572 -123.57066 19490 ft 419 kts 95°
2026-05-07 02:15 37.23237 -123.53486 18859 ft 416 kts 95°
2026-05-07 02:15 37.22899 -123.49884 18221 ft 413 kts 95°
2026-05-07 02:15 37.22562 -123.46304 17591 ft 410 kts 95°
2026-05-07 02:15 37.22232 -123.42813 16959 ft 407 kts 95°
2026-05-07 02:16 37.21898 -123.39296 16338 ft 404 kts 95°
2026-05-07 02:16 37.21565 -123.35790 15626 ft 396 kts 95°
2026-05-07 02:16 37.21241 -123.32402 15025 ft 389 kts 96°
2026-05-07 02:16 37.20918 -123.29037 14438 ft 387 kts 96°
2026-05-07 02:17 37.20606 -123.25787 14186 ft 364 kts 96°
2026-05-07 02:17 37.20316 -123.22791 14015 ft 326 kts 96°
2026-05-07 02:17 37.20051 -123.20040 13893 ft 311 kts 96°
2026-05-07 02:17 37.19794 -123.17385 13764 ft 301 kts 95°
2026-05-07 02:18 37.19547 -123.14835 13648 ft 295 kts 95°
2026-05-07 02:18 37.19562 -123.12310 13383 ft 291 kts 77°
2026-05-07 02:18 37.20130 -123.09814 13053 ft 305 kts 72°
2026-05-07 02:18 37.20778 -123.07222 12656 ft 313 kts 72°
2026-05-07 02:19 37.21427 -123.04601 12244 ft 314 kts 72°
2026-05-07 02:19 37.22056 -123.02014 11847 ft 313 kts 73°
2026-05-07 02:19 37.22681 -122.99408 11439 ft 311 kts 73°
2026-05-07 02:19 37.23300 -122.96802 11032 ft 310 kts 73°
2026-05-07 02:20 37.23912 -122.94216 10629 ft 309 kts 72°
2026-05-07 02:20 37.24522 -122.91631 10284 ft 306 kts 72°
2026-05-07 02:20 37.25113 -122.89115 10162 ft 296 kts 72°
2026-05-07 02:20 37.25675 -122.86714 10016 ft 278 kts 72°
2026-05-07 02:21 37.26033 -122.85186 9959 ft 272 kts 72°
2026-05-07 02:21 37.26742 -122.82167 9865 ft 275 kts 72°
2026-05-07 02:21 37.27289 -122.79834 9804 ft 281 kts 72°
2026-05-07 02:21 37.27656 -122.78266 9746 ft 282 kts 72°
2026-05-07 02:22 37.28207 -122.75906 9654 ft 280 kts 72°
2026-05-07 02:22 37.28932 -122.72801 9550 ft 279 kts 72°
2026-05-07 02:22 37.29299 -122.71223 9492 ft 278 kts 72°
2026-05-07 02:22 37.29843 -122.68890 9411 ft 277 kts 71°
2026-05-07 02:23 37.30377 -122.66594 9335 ft 277 kts 71°
2026-05-07 02:23 37.30918 -122.64270 9243 ft 276 kts 71°
2026-05-07 02:23 37.31458 -122.61944 9177 ft 276 kts 71°
2026-05-07 02:23 37.31998 -122.59619 9095 ft 277 kts 71°
2026-05-07 02:24 37.32529 -122.57330 9034 ft 276 kts 71°
2026-05-07 02:24 37.33066 -122.55007 8935 ft 277 kts 71°
2026-05-07 02:24 37.33601 -122.52674 8857 ft 277 kts 71°
2026-05-07 02:24 37.34146 -122.50334 8775 ft 280 kts 71°
2026-05-07 02:25 37.34675 -122.48042 8670 ft 263 kts 71°
2026-05-07 02:25 37.35159 -122.45937 8281 ft 248 kts 71°
2026-05-07 02:25 37.35636 -122.43871 8076 ft 243 kts 71°
2026-05-07 02:25 37.36109 -122.41832 8027 ft 241 kts 71°
2026-05-07 02:26 37.36571 -122.39824 8023 ft 238 kts 71°
2026-05-07 02:26 37.37032 -122.37807 8014 ft 240 kts 71°
2026-05-07 02:26 37.37482 -122.35836 8002 ft 235 kts 71°
2026-05-07 02:26 37.37927 -122.33880 8003 ft 232 kts 71°
2026-05-07 02:27 37.38372 -122.31940 8007 ft 229 kts 71°
2026-05-07 02:27 37.38811 -122.30025 8004 ft 225 kts 71°
2026-05-07 02:27 37.39241 -122.28147 7980 ft 221 kts 72°
2026-05-07 02:27 37.39320 -122.26226 7696 ft 228 kts 97°
2026-05-07 02:28 37.39030 -122.24259 7462 ft 230 kts 97°
2026-05-07 02:28 37.38774 -122.22263 7168 ft 230 kts 96°
2026-05-07 02:28 37.38528 -122.20281 6887 ft 228 kts 96°
2026-05-07 02:28 37.38285 -122.18316 6609 ft 226 kts 97°
2026-05-07 02:29 37.38084 -122.16393 6329 ft 220 kts 86°
2026-05-07 02:29 37.38514 -122.14631 6053 ft 208 kts 49°
2026-05-07 02:29 37.39628 -122.13527 5828 ft 205 kts 19°
2026-05-07 02:29 37.41020 -122.13146 5578 ft 206 kts 356°
2026-05-07 02:30 37.42427 -122.13466 5319 ft 207 kts 344°
2026-05-07 02:30 37.43802 -122.13950 5098 ft 207 kts 343°
2026-05-07 02:30 37.45197 -122.14455 4780 ft 208 kts 343°
2026-05-07 02:30 37.46583 -122.14941 4503 ft 204 kts 343°
2026-05-07 02:31 37.47908 -122.15389 4232 ft 193 kts 344°
2026-05-07 02:31 37.49186 -122.15818 3991 ft 191 kts 344°
2026-05-07 02:31 37.50463 -122.16245 3743 ft 188 kts 344°
2026-05-07 02:31 37.51724 -122.16662 3502 ft 185 kts 344°
2026-05-07 02:32 37.52929 -122.17163 3267 ft 180 kts 326°
2026-05-07 02:32 37.53722 -122.18294 3103 ft 168 kts 304°
2026-05-07 02:32 37.54362 -122.19468 2865 ft 162 kts 305°
2026-05-07 02:32 37.54977 -122.20644 2668 ft 160 kts 301°
2026-05-07 02:33 37.55530 -122.21858 2450 ft 156 kts 299°
2026-05-07 02:33 37.56035 -122.23038 2241 ft 150 kts 298°
2026-05-07 02:33 37.56515 -122.24176 2046 ft 147 kts 298°
2026-05-07 02:33 37.56999 -122.25328 1868 ft 149 kts 298°
2026-05-07 02:34 37.57469 -122.26450 1677 ft 140 kts 297°
2026-05-07 02:34 37.57901 -122.27480 1492 ft 126 kts 297°
2026-05-07 02:34 37.58306 -122.28446 1348 ft 124 kts 297°
2026-05-07 02:34 37.58709 -122.29407 1165 ft 123 kts 297°
2026-05-07 02:35 37.59096 -122.30329 1006 ft 113 kts 295°
2026-05-07 02:35 37.59450 -122.31176 854 ft 108 kts 295°
2026-05-07 02:35 37.59807 -122.32032 724 ft 112 kts 295°
2026-05-07 02:35 37.60166 -122.32888 571 ft 111 kts 295°
2026-05-07 02:36 37.60532 -122.33753 406 ft 112 kts 296°
2026-05-07 02:36 37.60904 -122.34639 270 ft 115 kts 296°
2026-05-07 02:36 37.61279 -122.35540 118 ft 117 kts 297°
2026-05-07 02:36 37.61657 -122.36445 28 ft 110 kts 297°
2026-05-07 02:37 37.61950 -122.37148 26 ft 62 kts 298°
2026-05-07 02:37 37.62073 -122.37444 26 ft 31 kts 297°
2026-05-07 02:37 37.62140 -122.37653 26 ft 20 kts 255°
2026-05-07 02:37 37.62062 -122.37799 26 ft 20 kts 229°
2026-05-07 02:38 37.61975 -122.37924 26 ft 13 kts 229°
2026-05-07 02:38 37.61960 -122.37946 26 ft 2 kts 230°
2026-05-07 02:38 37.61953 -122.37966 26 ft 6 kts 253°
2026-05-07 02:38 37.61995 -122.38100 26 ft 20 kts 298°
2026-05-07 02:39 37.62050 -122.38229 26 ft 0 kts 298°
2026-05-07 02:39 37.62061 -122.38256 26 ft 10 kts 298°
2026-05-07 02:39 37.62094 -122.38335 26 ft 10 kts 294°
2026-05-07 02:39 37.62080 -122.38419 26 ft 10 kts 257°
2026-05-07 02:40 37.62095 -122.38506 26 ft 10 kts 292°
2026-05-07 02:40 37.62126 -122.38586 26 ft 10 kts 296°
2026-05-07 02:40 37.62157 -122.38666 26 ft 10 kts 297°
2026-05-07 02:40 37.62190 -122.38744 26 ft 10 kts 298°
2026-05-07 02:41 37.62221 -122.38824 26 ft 10 kts 281°
2026-05-07 02:41 37.62179 -122.38891 26 ft 10 kts 216°
2026-05-07 02:41 37.62140 -122.38919 26 ft 4 kts 207°
2026-05-07 02:41 37.62139 -122.38919 26 ft 0 kts 207°